Observation data for Stinnett on 11/15/2019      Previous  Date       Current Mesonet Observations  Soil Data  Daily Summary Page  Observations in Plain Language
KST3 150600Z 22008KT 01/M03 A3039 RMK A01 T00061025  RH  079%=      5-min Rain = 0
KST3 150601Z 22008KT 01/M03 A3039 RMK A01 T00061025  RH  080%=      5-min Rain = 0
KST3 150602Z 22009KT 01/M02 A3039 RMK A01 T00071024  RH  080%=      5-min Rain = 0
KST3 150603Z 22009KT 01/M02 A3039 RMK A01 T00071024  RH  079%=      5-min Rain = 0
KST3 150604Z 22009KT 01/M02 A3039 RMK A01 T00081024  RH  079%=      5-min Rain = 0
KST3 150605Z 22009KT 01/M02 A3039 RMK A01 T00081024  RH  079%=      5-min Rain = 0
KST3 150606Z 22009KT 01/M02 A3039 RMK A01 T00081024  RH  079%=      5-min Rain = 0
KST3 150607Z 22009KT 01/M02 A3039 RMK A01 T00091023  RH  079%=      5-min Rain = 0
KST3 150608Z 22009KT 01/M02 A3039 RMK A01 T00091023  RH  079%=      5-min Rain = 0
KST3 150609Z 22008KT 01/M02 A3039 RMK A01 T00101022  RH  079%=      5-min Rain = 0
KST3 150610Z 22008KT 01/M02 A3039 RMK A01 T00111022  RH  079%=      5-min Rain = 0
KST3 150611Z 22008KT 01/M02 A3039 RMK A01 T00101023  RH  079%=      5-min Rain = 0
KST3 150612Z 22008KT 01/M02 A3039 RMK A01 T00111022  RH  079%=      5-min Rain = 0
KST3 150613Z 22008KT 01/M02 A3039 RMK A01 T00121021  RH  079%=      5-min Rain = 0
KST3 150614Z 22008KT 01/M02 A3039 RMK A01 T00121021  RH  078%=      5-min Rain = 0
KST3 150615Z 22008KT 01/M02 A3039 RMK A01 T00131020  RH  078%=      5-min Rain = 0
KST3 150616Z 22008KT 01/M02 A3039 RMK A01 T00131021  RH  078%=      5-min Rain = 0
KST3 150617Z 22008KT 01/M02 A3039 RMK A01 T00141021  RH  078%=      5-min Rain = 0
KST3 150618Z 22008KT 01/M02 A3039 RMK A01 T00141021  RH  078%=      5-min Rain = 0
KST3 150619Z 22008KT 01/M02 A3039 RMK A01 T00141021  RH  078%=      5-min Rain = 0
KST3 150620Z 22008KT 01/M02 A3039 RMK A01 T00141021  RH  078%=      5-min Rain = 0
KST3 150621Z 22008KT 01/M02 A3039 RMK A01 T00141021  RH  078%=      5-min Rain = 0
KST3 150622Z 22008KT 01/M02 A3039 RMK A01 T00131021  RH  078%=      5-min Rain = 0
KST3 150623Z 22008KT 01/M02 A3039 RMK A01 T00141020  RH  078%=      5-min Rain = 0
KST3 150624Z 22009KT 01/M02 A3039 RMK A01 T00141021  RH  078%=      5-min Rain = 0
KST3 150625Z 22009KT 01/M02 A3039 RMK A01 T00141021  RH  078%=      5-min Rain = 0
KST3 150626Z 22009KT 01/M02 A3039 RMK A01 T00131021  RH  078%=      5-min Rain = 0
KST3 150627Z 22009KT 01/M02 A3039 RMK A01 T00121022  RH  078%=      5-min Rain = 0
KST3 150628Z 22009KT 01/M02 A3039 RMK A01 T00121022  RH  078%=      5-min Rain = 0
KST3 150629Z 22009KT 01/M02 A3039 RMK A01 T00111022  RH  079%=      5-min Rain = 0
KST3 150630Z 22009KT 01/M02 A3039 RMK A01 T00101022  RH  079%=      5-min Rain = 0
KST3 150631Z 22008KT 01/M02 A3039 RMK A01 T00101022  RH  079%=      5-min Rain = 0
KST3 150632Z 22008KT 01/M02 A3039 RMK A01 T00091022  RH  080%=      5-min Rain = 0
KST3 150633Z 22008KT 01/M02 A3039 RMK A01 T00101021  RH  080%=      5-min Rain = 0
KST3 150634Z 22008KT 01/M02 A3039 RMK A01 T00111021  RH  080%=      5-min Rain = 0
KST3 150635Z 22009KT 01/M02 A3039 RMK A01 T00111020  RH  079%=      5-min Rain = 0
KST3 150636Z 22009KT 01/M02 A3039 RMK A01 T00121020  RH  079%=      5-min Rain = 0
KST3 150637Z 22009KT 01/M02 A3039 RMK A01 T00131020  RH  079%=      5-min Rain = 0
KST3 150638Z 22009KT 01/M02 A3039 RMK A01 T00131020  RH  079%=      5-min Rain = 0
KST3 150639Z 22009KT 01/M02 A3039 RMK A01 T00131021  RH  079%=      5-min Rain = 0
KST3 150640Z 22009KT 01/M02 A3039 RMK A01 T00121021  RH  079%=      5-min Rain = 0
KST3 150641Z 22009KT 01/M02 A3039 RMK A01 T00111021  RH  079%=      5-min Rain = 0
KST3 150642Z 22009KT 01/M02 A3039 RMK A01 T00111021  RH  079%=      5-min Rain = 0
KST3 150643Z 22009KT 01/M02 A3039 RMK A01 T00111020  RH  080%=      5-min Rain = 0
KST3 150644Z 22009KT 01/M02 A3039 RMK A01 T00111020  RH  080%=      5-min Rain = 0
KST3 150645Z 22009KT 01/M02 A3039 RMK A01 T00111020  RH  079%=      5-min Rain = 0
KST3 150646Z 22009KT 01/M02 A3039 RMK A01 T00111021  RH  080%=      5-min Rain = 0
KST3 150647Z 22009KT 01/M02 A3039 RMK A01 T00101020  RH  080%=      5-min Rain = 0
KST3 150648Z 22009KT 01/M02 A3039 RMK A01 T00111020  RH  080%=      5-min Rain = 0
KST3 150649Z 22009KT 01/M02 A3039 RMK A01 T00111020  RH  080%=      5-min Rain = 0
KST3 150650Z 22009KT 01/M02 A3039 RMK A01 T00111020  RH  080%=      5-min Rain = 0
KST3 150651Z 22009KT 01/M02 A3039 RMK A01 T00101019  RH  081%=      5-min Rain = 0
KST3 150652Z 22009KT 01/M02 A3039 RMK A01 T00101019  RH  081%=      5-min Rain = 0
KST3 150653Z 22009KT 01/M02 A3038 RMK A01 T00111019  RH  081%=      5-min Rain = 0
KST3 150654Z 22009KT 01/M02 A3038 RMK A01 T00101019  RH  081%=      5-min Rain = 0
KST3 150655Z 22009KT 01/M02 A3038 RMK A01 T00101019  RH  081%=      5-min Rain = 0
KST3 150656Z 22009KT 01/M02 A3038 RMK A01 T00101019  RH  081%=      5-min Rain = 0
KST3 150657Z 22009KT 01/M02 A3038 RMK A01 T00101019  RH  081%=      5-min Rain = 0
KST3 150658Z 22009KT 01/M02 A3038 RMK A01 T00091019  RH  081%=      5-min Rain = 0
KST3 150659Z 22009KT 01/M02 A3038 RMK A01 T00091020  RH  081%=      5-min Rain = 0
KST3 150700Z 22009KT 01/M02 A3038 RMK A01 T00091020  RH  081%=      5-min Rain = 0
KST3 150701Z 22009KT 01/M02 A3038 RMK A01 T00091019  RH  081%=      5-min Rain = 0
KST3 150702Z 22009KT 01/M02 A3038 RMK A01 T00091019  RH  082%=      5-min Rain = 0
KST3 150703Z 22009KT 01/M02 A3038 RMK A01 T00101018  RH  082%=      5-min Rain = 0
KST3 150704Z 22009KT 01/M02 A3038 RMK A01 T00101018  RH  082%=      5-min Rain = 0
KST3 150705Z 22009KT 01/M02 A3038 RMK A01 T00111017  RH  081%=      5-min Rain = 0
KST3 150706Z 22009KT 01/M02 A3038 RMK A01 T00111018  RH  081%=      5-min Rain = 0
KST3 150707Z 22009KT 01/M02 A3038 RMK A01 T00111018  RH  081%=      5-min Rain = 0
KST3 150708Z 22009KT 01/M02 A3038 RMK A01 T00111018  RH  081%=      5-min Rain = 0
KST3 150709Z 22009KT 01/M02 A3038 RMK A01 T00111018  RH  081%=      5-min Rain = 0
KST3 150710Z 22009KT 01/M02 A3038 RMK A01 T00111018  RH  081%=      5-min Rain = 0
KST3 150711Z 22009KT 01/M02 A3038 RMK A01 T00101018  RH  081%=      5-min Rain = 0
KST3 150712Z 22009KT 01/M02 A3038 RMK A01 T00101019  RH  081%=      5-min Rain = 0
KST3 150713Z 22009KT 01/M02 A3038 RMK A01 T00091019  RH  081%=      5-min Rain = 0
KST3 150714Z 22009KT 01/M02 A3038 RMK A01 T00081019  RH  082%=      5-min Rain = 0
KST3 150715Z 22009KT 01/M02 A3038 RMK A01 T00081019  RH  082%=      5-min Rain = 0
KST3 150716Z 22009KT 01/M02 A3038 RMK A01 T00081018  RH  083%=      5-min Rain = 0
KST3 150717Z 22009KT 01/M02 A3038 RMK A01 T00081018  RH  083%=      5-min Rain = 0
KST3 150718Z 22009KT 01/M02 A3038 RMK A01 T00081017  RH  083%=      5-min Rain = 0
KST3 150719Z 22009KT 01/M02 A3038 RMK A01 T00091017  RH  083%=      5-min Rain = 0
KST3 150720Z 22009KT 01/M02 A3038 RMK A01 T00091017  RH  083%=      5-min Rain = 0
KST3 150721Z 22009KT 01/M02 A3038 RMK A01 T00091017  RH  083%=      5-min Rain = 0
KST3 150722Z 22008KT 01/M02 A3038 RMK A01 T00091018  RH  083%=      5-min Rain = 0
KST3 150723Z 22008KT 01/M02 A3038 RMK A01 T00081018  RH  083%=      5-min Rain = 0
KST3 150724Z 22008KT 01/M02 A3038 RMK A01 T00081018  RH  083%=      5-min Rain = 0
KST3 150725Z 22008KT 01/M02 A3038 RMK A01 T00071019  RH  083%=      5-min Rain = 0
KST3 150726Z 22007KT 01/M02 A3038 RMK A01 T00071020  RH  083%=      5-min Rain = 0
KST3 150727Z 22007KT 01/M02 A3038 RMK A01 T00061020  RH  083%=      5-min Rain = 0
KST3 150728Z 22007KT 01/M02 A3038 RMK A01 T00051021  RH  083%=      5-min Rain = 0
KST3 150729Z 22007KT 00/M02 A3038 RMK A01 T00041022  RH  083%=      5-min Rain = 0
KST3 150730Z 22007KT 00/M02 A3038 RMK A01 T00041022  RH  083%=      5-min Rain = 0
KST3 150731Z 22007KT 00/M02 A3037 RMK A01 T00031022  RH  083%=      5-min Rain = 0
KST3 150732Z 22007KT 00/M02 A3037 RMK A01 T00021022  RH  084%=      5-min Rain = 0
KST3 150733Z 22007KT 00/M02 A3037 RMK A01 T00031022  RH  084%=      5-min Rain = 0
KST3 150734Z 22007KT 00/M02 A3037 RMK A01 T00031021  RH  084%=      5-min Rain = 0
KST3 150735Z 22008KT 00/M02 A3037 RMK A01 T00031021  RH  084%=      5-min Rain = 0
KST3 150736Z 22008KT 00/M02 A3037 RMK A01 T00031021  RH  084%=      5-min Rain = 0
KST3 150737Z 22008KT 00/M02 A3037 RMK A01 T00031021  RH  084%=      5-min Rain = 0
KST3 150738Z 22008KT 00/M02 A3037 RMK A01 T00031022  RH  084%=      5-min Rain = 0
KST3 150739Z 22008KT 00/M02 A3037 RMK A01 T00021022  RH  084%=      5-min Rain = 0
KST3 150740Z 22008KT 00/M02 A3037 RMK A01 T00011023  RH  084%=      5-min Rain = 0
KST3 150741Z 22008KT 00/M02 A3037 RMK A01 T00011023  RH  084%=      5-min Rain = 0
KST3 150742Z 22008KT 00/M02 A3037 RMK A01 T00011023  RH  084%=      5-min Rain = 0
KST3 150743Z 22008KT 00/M02 A3037 RMK A01 T00011023  RH  084%=      5-min Rain = 0
KST3 150744Z 23008KT 00/M02 A3037 RMK A01 T00011023  RH  084%=      5-min Rain = 0
KST3 150745Z 23008KT 00/M02 A3037 RMK A01 T00011023  RH  084%=      5-min Rain = 0
KST3 150746Z 23008KT 00/M02 A3037 RMK A01 T00011023  RH  084%=      5-min Rain = 0
KST3 150747Z 23009KT 00/M02 A3037 RMK A01 T00011023  RH  084%=      5-min Rain = 0
KST3 150748Z 23009KT 00/M02 A3037 RMK A01 T00011022  RH  085%=      5-min Rain = 0
KST3 150749Z 23008KT 00/M02 A3037 RMK A01 T00011021  RH  085%=      5-min Rain = 0
KST3 150750Z 23008KT 00/M02 A3037 RMK A01 T00011022  RH  085%=      5-min Rain = 0
KST3 150751Z 23008KT 00/M02 A3037 RMK A01 T00011022  RH  085%=      5-min Rain = 0
KST3 150752Z 23009KT 00/02 A3037 RMK A01 T00000-23  RH  084%=      5-min Rain = 0
KST3 150753Z 23009KT M00/M02 A3037 RMK A01 T10011023  RH  085%=      5-min Rain = 0
KST3 150754Z 23009KT M00/M02 A3037 RMK A01 T10011023  RH  085%=      5-min Rain = 0
KST3 150755Z 23009KT M00/M02 A3037 RMK A01 T10011023  RH  085%=      5-min Rain = 0
KST3 150756Z 23009KT M00/M02 A3037 RMK A01 T10011023  RH  085%=      5-min Rain = 0
KST3 150757Z 23009KT M00/M02 A3037 RMK A01 T10011023  RH  085%=      5-min Rain = 0
KST3 150758Z 23009KT M00/M02 A3037 RMK A01 T10011023  RH  085%=      5-min Rain = 0
KST3 150759Z 23009KT M00/M02 A3037 RMK A01 T10011023  RH  085%=      5-min Rain = 0
KST3 150800Z 23009KT M00/M02 A3037 RMK A01 T10011022  RH  086%=      5-min Rain = 0
KST3 150801Z 23010KT 00/02 A3037 RMK A01 T00-00-21  RH  086%=      5-min Rain = 0
KST3 150802Z 23010KT 00/M02 A3037 RMK A01 T00011019  RH  086%=      5-min Rain = 0
KST3 150803Z 23009KT 00/M02 A3037 RMK A01 T00031017  RH  086%=      5-min Rain = 0
KST3 150804Z 23010KT 01/M02 A3037 RMK A01 T00051017  RH  086%=      5-min Rain = 0
KST3 150805Z 23010KT 01/M02 A3037 RMK A01 T00061017  RH  085%=      5-min Rain = 0
KST3 150806Z 23010KT 01/M02 A3037 RMK A01 T00061017  RH  084%=      5-min Rain = 0
KST3 150807Z 23010KT 01/M02 A3037 RMK A01 T00081016  RH  084%=      5-min Rain = 0
KST3 150808Z 23009KT 01/M02 A3037 RMK A01 T00081016  RH  084%=      5-min Rain = 0
KST3 150809Z 23009KT 01/M02 A3037 RMK A01 T00091016  RH  083%=      5-min Rain = 0
KST3 150810Z 23009KT 01/M02 A3036 RMK A01 T00091017  RH  083%=      5-min Rain = 0
KST3 150811Z 23010KT 01/M02 A3036 RMK A01 T00091017  RH  083%=      5-min Rain = 0
KST3 150812Z 23010KT 01/M02 A3036 RMK A01 T00091018  RH  082%=      5-min Rain = 0
KST3 150813Z 23010KT 01/M02 A3036 RMK A01 T00091018  RH  082%=      5-min Rain = 0
KST3 150814Z 23010KT 01/M02 A3036 RMK A01 T00081019  RH  082%=      5-min Rain = 0
KST3 150815Z 24011KT 01/M02 A3036 RMK A01 T00081019  RH  082%=      5-min Rain = 0
KST3 150816Z 24011KT 01/M02 A3036 RMK A01 T00071019  RH  083%=      5-min Rain = 0
KST3 150817Z 24011KT 01/M02 A3036 RMK A01 T00081019  RH  083%=      5-min Rain = 0
KST3 150818Z 24011KT 01/M02 A3036 RMK A01 T00071019  RH  083%=      5-min Rain = 0
KST3 150819Z 24010KT 01/M02 A3036 RMK A01 T00071019  RH  083%=      5-min Rain = 0
KST3 150820Z 24010KT 01/M02 A3036 RMK A01 T00071019  RH  083%=      5-min Rain = 0
KST3 150821Z 23010KT 01/M02 A3036 RMK A01 T00071019  RH  083%=      5-min Rain = 0
KST3 150822Z 23011KT 01/M02 A3036 RMK A01 T00061020  RH  083%=      5-min Rain = 0
KST3 150823Z 23010KT 01/M02 A3036 RMK A01 T00061020  RH  083%=      5-min Rain = 0
KST3 150824Z 23010KT 01/M02 A3036 RMK A01 T00061020  RH  083%=      5-min Rain = 0
KST3 150825Z 23010KT 01/M02 A3036 RMK A01 T00061020  RH  083%=      5-min Rain = 0
KST3 150826Z 23010KT 01/M02 A3036 RMK A01 T00051020  RH  083%=      5-min Rain = 0
KST3 150827Z 23010KT 01/M02 A3036 RMK A01 T00051021  RH  083%=      5-min Rain = 0
KST3 150828Z 23010KT 00/M02 A3036 RMK A01 T00041022  RH  083%=      5-min Rain = 0
KST3 150829Z 23010KT 00/M02 A3036 RMK A01 T00031022  RH  083%=      5-min Rain = 0
KST3 150830Z 23010KT 00/M02 A3036 RMK A01 T00021023  RH  084%=      5-min Rain = 0
KST3 150831Z 23010KT 00/M02 A3036 RMK A01 T00011023  RH  084%=      5-min Rain = 0
KST3 150832Z 23010KT 00/02 A3036 RMK A01 T00-00-24  RH  084%=      5-min Rain = 0
KST3 150833Z 23010KT M00/M02 A3036 RMK A01 T10011024  RH  085%=      5-min Rain = 0
KST3 150834Z 23010KT M00/M02 A3036 RMK A01 T10021024  RH  085%=      5-min Rain = 0
KST3 150835Z 23010KT M00/M02 A3036 RMK A01 T10021023  RH  086%=      5-min Rain = 0
KST3 150836Z 23009KT M00/M02 A3036 RMK A01 T10021023  RH  086%=      5-min Rain = 0
KST3 150837Z 23009KT M00/M02 A3036 RMK A01 T10021023  RH  086%=      5-min Rain = 0
KST3 150838Z 23009KT M00/M02 A3036 RMK A01 T10011022  RH  086%=      5-min Rain = 0
KST3 150839Z 23009KT M00/M02 A3036 RMK A01 T10021023  RH  086%=      5-min Rain = 0
KST3 150840Z 23009KT M00/M02 A3036 RMK A01 T10021023  RH  086%=      5-min Rain = 0
KST3 150841Z 23009KT M00/M02 A3036 RMK A01 T10021024  RH  086%=      5-min Rain = 0
KST3 150842Z 23009KT M00/M02 A3036 RMK A01 T10031024  RH  086%=      5-min Rain = 0
KST3 150843Z 23009KT M00/M02 A3036 RMK A01 T10041024  RH  086%=      5-min Rain = 0
KST3 150844Z 23010KT M00/M02 A3036 RMK A01 T10041024  RH  086%=      5-min Rain = 0
KST3 150845Z 23010KT M00/M02 A3035 RMK A01 T10031023  RH  087%=      5-min Rain = 0
KST3 150846Z 23010KT M00/M02 A3035 RMK A01 T10031022  RH  087%=      5-min Rain = 0
KST3 150847Z 23010KT M00/M02 A3035 RMK A01 T10011021  RH  087%=      5-min Rain = 0
KST3 150848Z 23010KT 00/02 A3035 RMK A01 T00000-20  RH  086%=      5-min Rain = 0
KST3 150849Z 23010KT 00/M02 A3035 RMK A01 T00021019  RH  086%=      5-min Rain = 0
KST3 150850Z 23010KT 00/M02 A3035 RMK A01 T00031019  RH  085%=      5-min Rain = 0
KST3 150851Z 23010KT 00/M02 A3035 RMK A01 T00031019  RH  085%=      5-min Rain = 0
KST3 150852Z 23010KT 00/M02 A3035 RMK A01 T00041020  RH  084%=      5-min Rain = 0
KST3 150853Z 23010KT 00/M02 A3035 RMK A01 T00031020  RH  084%=      5-min Rain = 0
KST3 150854Z 23010KT 00/M02 A3035 RMK A01 T00041020  RH  084%=      5-min Rain = 0
KST3 150855Z 23010KT 00/M02 A3035 RMK A01 T00031020  RH  084%=      5-min Rain = 0
KST3 150856Z 23010KT 00/M02 A3035 RMK A01 T00041020  RH  084%=      5-min Rain = 0
KST3 150857Z 23010KT 00/M02 A3035 RMK A01 T00031020  RH  084%=      5-min Rain = 0
KST3 150858Z 23010KT 00/M02 A3035 RMK A01 T00031020  RH  085%=      5-min Rain = 0
KST3 150859Z 23010KT 00/M02 A3035 RMK A01 T00041019  RH  085%=      5-min Rain = 0
KST3 150900Z 23010KT 00/M02 A3035 RMK A01 T00041020  RH  084%=      5-min Rain = 0
KST3 150901Z 23010KT 00/M02 A3035 RMK A01 T00031020  RH  084%=      5-min Rain = 0
KST3 150902Z 23010KT 00/M02 A3035 RMK A01 T00031021  RH  084%=      5-min Rain = 0
KST3 150903Z 23010KT 00/M02 A3035 RMK A01 T00021021  RH  085%=      5-min Rain = 0
KST3 150904Z 23009KT 00/M02 A3035 RMK A01 T00021021  RH  085%=      5-min Rain = 0
KST3 150905Z 23009KT 00/M02 A3035 RMK A01 T00011022  RH  085%=      5-min Rain = 0
KST3 150906Z 23009KT 00/02 A3035 RMK A01 T00-00-22  RH  085%=      5-min Rain = 0
KST3 150907Z 23009KT M00/M02 A3035 RMK A01 T10011023  RH  085%=      5-min Rain = 0
KST3 150908Z 23009KT M00/M02 A3035 RMK A01 T10021023  RH  086%=      5-min Rain = 0
KST3 150909Z 23010KT M00/M02 A3035 RMK A01 T10031023  RH  086%=      5-min Rain = 0
KST3 150910Z 23010KT M00/M02 A3035 RMK A01 T10021022  RH  087%=      5-min Rain = 0
KST3 150911Z 23010KT M00/M02 A3035 RMK A01 T10021021  RH  087%=      5-min Rain = 0
KST3 150912Z 23010KT M00/M02 A3035 RMK A01 T10021021  RH  087%=      5-min Rain = 0
KST3 150913Z 23010KT M00/M02 A3035 RMK A01 T10021021  RH  087%=      5-min Rain = 0
KST3 150914Z 23010KT M00/M02 A3035 RMK A01 T10021021  RH  087%=      5-min Rain = 0
KST3 150915Z 23011KT M00/M02 A3035 RMK A01 T10011022  RH  086%=      5-min Rain = 0
KST3 150916Z 23011KT M00/M02 A3035 RMK A01 T10011021  RH  086%=      5-min Rain = 0
KST3 150917Z 24011KT M00/M02 A3035 RMK A01 T10021021  RH  087%=      5-min Rain = 0
KST3 150918Z 24011KT M00/M02 A3035 RMK A01 T10021021  RH  087%=      5-min Rain = 0
KST3 150919Z 23011KT M00/M02 A3035 RMK A01 T10011021  RH  087%=      5-min Rain = 0
KST3 150920Z 23011KT 00/02 A3035 RMK A01 T00-00-20  RH  087%=      5-min Rain = 0
KST3 150921Z 23011KT 00/02 A3035 RMK A01 T00-00-20  RH  087%=      5-min Rain = 0
KST3 150922Z 23011KT 00/02 A3035 RMK A01 T00-00-20  RH  086%=      5-min Rain = 0
KST3 150923Z 23011KT 00/M02 A3035 RMK A01 T00011019  RH  086%=      5-min Rain = 0
KST3 150924Z 23011KT 00/M02 A3035 RMK A01 T00021019  RH  086%=      5-min Rain = 0
KST3 150925Z 23011KT 00/M02 A3035 RMK A01 T00031018  RH  086%=      5-min Rain = 0
KST3 150926Z 23011KT 00/M02 A3035 RMK A01 T00031018  RH  085%=      5-min Rain = 0
KST3 150927Z 23011KT 00/M02 A3035 RMK A01 T00031019  RH  085%=      5-min Rain = 0
KST3 150928Z 23011KT 00/M02 A3035 RMK A01 T00031019  RH  085%=      5-min Rain = 0
KST3 150929Z 23010KT 00/M02 A3035 RMK A01 T00031020  RH  085%=      5-min Rain = 0
KST3 150930Z 23010KT 00/M02 A3035 RMK A01 T00021020  RH  085%=      5-min Rain = 0
KST3 150931Z 23010KT 00/M02 A3035 RMK A01 T00021020  RH  085%=      5-min Rain = 0
KST3 150932Z 23010KT 00/M02 A3035 RMK A01 T00011021  RH  085%=      5-min Rain = 0
KST3 150933Z 23010KT 00/M02 A3035 RMK A01 T00011021  RH  085%=      5-min Rain = 0
KST3 150934Z 23010KT 00/M02 A3035 RMK A01 T00011021  RH  085%=      5-min Rain = 0
KST3 150935Z 23010KT 00/02 A3035 RMK A01 T00-00-21  RH  086%=      5-min Rain = 0
KST3 150936Z 23010KT M00/M02 A3035 RMK A01 T10011022  RH  086%=      5-min Rain = 0
KST3 150937Z 23010KT M00/M02 A3035 RMK A01 T10011022  RH  086%=      5-min Rain = 0
KST3 150938Z 23010KT M00/M02 A3035 RMK A01 T10021021  RH  087%=      5-min Rain = 0
KST3 150939Z 23010KT M00/M02 A3035 RMK A01 T10021021  RH  087%=      5-min Rain = 0
KST3 150940Z 23010KT M00/M02 A3035 RMK A01 T10011021  RH  087%=      5-min Rain = 0
KST3 150941Z 23010KT M00/M02 A3035 RMK A01 T10021020  RH  087%=      5-min Rain = 0
KST3 150942Z 23010KT M00/M02 A3035 RMK A01 T10011020  RH  087%=      5-min Rain = 0
KST3 150943Z 22010KT M00/M02 A3034 RMK A01 T10011021  RH  087%=      5-min Rain = 0
KST3 150944Z 22010KT M00/M02 A3034 RMK A01 T10011021  RH  087%=      5-min Rain = 0
KST3 150945Z 22010KT M00/M02 A3034 RMK A01 T10011021  RH  087%=      5-min Rain = 0
KST3 150946Z 22009KT M00/M02 A3034 RMK A01 T10011021  RH  087%=      5-min Rain = 0
KST3 150947Z 22009KT M00/M02 A3034 RMK A01 T10021021  RH  087%=      5-min Rain = 0
KST3 150948Z 22009KT M00/M02 A3034 RMK A01 T10021022  RH  087%=      5-min Rain = 0
KST3 150949Z 22009KT M00/M02 A3034 RMK A01 T10031022  RH  087%=      5-min Rain = 0
KST3 150950Z 22009KT M00/M02 A3034 RMK A01 T10031022  RH  087%=      5-min Rain = 0
KST3 150951Z 22009KT M00/M02 A3034 RMK A01 T10031022  RH  087%=      5-min Rain = 0
KST3 150952Z 22009KT M00/M02 A3034 RMK A01 T10031022  RH  087%=      5-min Rain = 0
KST3 150953Z 22009KT M00/M02 A3034 RMK A01 T10031022  RH  087%=      5-min Rain = 0
KST3 150954Z 23009KT M00/M02 A3034 RMK A01 T10031022  RH  087%=      5-min Rain = 0
KST3 150955Z 23010KT M00/M02 A3034 RMK A01 T10041023  RH  087%=      5-min Rain = 0
KST3 150956Z 23010KT M00/M02 A3034 RMK A01 T10041023  RH  087%=      5-min Rain = 0
KST3 150957Z 23010KT M00/M02 A3034 RMK A01 T10041022  RH  088%=      5-min Rain = 0
KST3 150958Z 22010KT M00/M02 A3034 RMK A01 T10041022  RH  088%=      5-min Rain = 0
KST3 150959Z 22010KT M00/M02 A3034 RMK A01 T10041022  RH  088%=      5-min Rain = 0
KST3 151000Z 22010KT M00/M02 A3034 RMK A01 T10041022  RH  088%=      5-min Rain = 0
KST3 151001Z 22010KT M00/M02 A3034 RMK A01 T10041022  RH  088%=      5-min Rain = 0
KST3 151002Z 22010KT M00/M02 A3034 RMK A01 T10041022  RH  088%=      5-min Rain = 0
KST3 151003Z 22010KT M01/M02 A3034 RMK A01 T10051022  RH  088%=      5-min Rain = 0
KST3 151004Z 22010KT M01/M02 A3034 RMK A01 T10051023  RH  088%=      5-min Rain = 0
KST3 151005Z 22010KT M01/M02 A3034 RMK A01 T10051023  RH  088%=      5-min Rain = 0
KST3 151006Z 23010KT M01/M02 A3034 RMK A01 T10061023  RH  088%=      5-min Rain = 0
KST3 151007Z 23010KT M01/M02 A3034 RMK A01 T10061023  RH  089%=      5-min Rain = 0
KST3 151008Z 23010KT M01/M02 A3034 RMK A01 T10061022  RH  089%=      5-min Rain = 0
KST3 151009Z 23010KT M01/M02 A3034 RMK A01 T10061022  RH  089%=      5-min Rain = 0
KST3 151010Z 23011KT M01/M02 A3034 RMK A01 T10051022  RH  089%=      5-min Rain = 0
KST3 151011Z 23011KT M01/M02 A3034 RMK A01 T10051022  RH  089%=      5-min Rain = 0
KST3 151012Z 23011KT M01/M02 A3034 RMK A01 T10051022  RH  089%=      5-min Rain = 0
KST3 151013Z 23011KT M00/M02 A3034 RMK A01 T10041021  RH  089%=      5-min Rain = 0
KST3 151014Z 23011KT M00/M02 A3034 RMK A01 T10041022  RH  088%=      5-min Rain = 0
KST3 151015Z 23011KT M00/M02 A3034 RMK A01 T10041021  RH  088%=      5-min Rain = 0
KST3 151016Z 23011KT M00/M02 A3034 RMK A01 T10041021  RH  088%=      5-min Rain = 0
KST3 151017Z 23011KT M00/M02 A3034 RMK A01 T10041021  RH  088%=      5-min Rain = 0
KST3 151018Z 23011KT M00/M02 A3034 RMK A01 T10031020  RH  088%=      5-min Rain = 0
KST3 151019Z 23011KT M00/M02 A3034 RMK A01 T10031021  RH  088%=      5-min Rain = 0
KST3 151020Z 23011KT M00/M02 A3034 RMK A01 T10031021  RH  088%=      5-min Rain = 0
KST3 151021Z 23010KT M00/M02 A3033 RMK A01 T10031020  RH  088%=      5-min Rain = 0
KST3 151022Z 23010KT M00/M02 A3033 RMK A01 T10031020  RH  088%=      5-min Rain = 0
KST3 151023Z 23010KT M00/M02 A3033 RMK A01 T10021021  RH  088%=      5-min Rain = 0
KST3 151024Z 23010KT M00/M02 A3033 RMK A01 T10021021  RH  087%=      5-min Rain = 0
KST3 151025Z 23010KT M00/M02 A3033 RMK A01 T10021020  RH  087%=      5-min Rain = 0
KST3 151026Z 23010KT M00/M02 A3033 RMK A01 T10021021  RH  087%=      5-min Rain = 0
KST3 151027Z 23010KT M00/M02 A3033 RMK A01 T10021021  RH  087%=      5-min Rain = 0
KST3 151028Z 23010KT M00/M02 A3033 RMK A01 T10021021  RH  087%=      5-min Rain = 0
KST3 151029Z 23010KT M00/M02 A3033 RMK A01 T10021021  RH  087%=      5-min Rain = 0
KST3 151030Z 23010KT M00/M02 A3033 RMK A01 T10021022  RH  087%=      5-min Rain = 0
KST3 151031Z 23010KT M00/M02 A3033 RMK A01 T10021022  RH  087%=      5-min Rain = 0
KST3 151032Z 23010KT M00/M02 A3033 RMK A01 T10031022  RH  087%=      5-min Rain = 0
KST3 151033Z 23010KT M00/M02 A3033 RMK A01 T10021021  RH  087%=      5-min Rain = 0
KST3 151034Z 23011KT M00/M02 A3033 RMK A01 T10021021  RH  087%=      5-min Rain = 0
KST3 151035Z 23011KT M00/M02 A3033 RMK A01 T10021021  RH  087%=      5-min Rain = 0
KST3 151036Z 23010KT M00/M02 A3033 RMK A01 T10021021  RH  087%=      5-min Rain = 0
KST3 151037Z 23010KT M00/M02 A3033 RMK A01 T10031022  RH  087%=      5-min Rain = 0
KST3 151038Z 23010KT M00/M02 A3033 RMK A01 T10031022  RH  087%=      5-min Rain = 0
KST3 151039Z 23010KT M00/M02 A3033 RMK A01 T10031023  RH  087%=      5-min Rain = 0
KST3 151040Z 23010KT M00/M02 A3033 RMK A01 T10041023  RH  087%=      5-min Rain = 0
KST3 151041Z 23010KT M00/M02 A3033 RMK A01 T10041022  RH  087%=      5-min Rain = 0
KST3 151042Z 23010KT M00/M02 A3033 RMK A01 T10041022  RH  088%=      5-min Rain = 0
KST3 151043Z 23010KT M00/M02 A3033 RMK A01 T10031022  RH  087%=      5-min Rain = 0
KST3 151044Z 23011KT M00/M02 A3033 RMK A01 T10031022  RH  087%=      5-min Rain = 0
KST3 151045Z 23010KT M00/M02 A3033 RMK A01 T10031022  RH  087%=      5-min Rain = 0
KST3 151046Z 23010KT M00/M02 A3033 RMK A01 T10041023  RH  087%=      5-min Rain = 0
KST3 151047Z 23010KT M00/M02 A3033 RMK A01 T10041023  RH  087%=      5-min Rain = 0
KST3 151048Z 23010KT M00/M02 A3033 RMK A01 T10041023  RH  087%=      5-min Rain = 0
KST3 151049Z 23010KT M00/M02 A3033 RMK A01 T10041023  RH  087%=      5-min Rain = 0
KST3 151050Z 23010KT M00/M02 A3033 RMK A01 T10041023  RH  087%=      5-min Rain = 0
KST3 151051Z 23010KT M01/M02 A3033 RMK A01 T10051024  RH  087%=      5-min Rain = 0
KST3 151052Z 23010KT M01/M02 A3033 RMK A01 T10061024  RH  087%=      5-min Rain = 0
KST3 151053Z 23010KT M01/M02 A3033 RMK A01 T10061024  RH  088%=      5-min Rain = 0
KST3 151054Z 23010KT M01/M02 A3033 RMK A01 T10061024  RH  088%=      5-min Rain = 0
KST3 151055Z 23010KT M01/M02 A3033 RMK A01 T10061023  RH  088%=      5-min Rain = 0
KST3 151056Z 23010KT M01/M02 A3033 RMK A01 T10061023  RH  088%=      5-min Rain = 0
KST3 151057Z 23010KT M01/M02 A3033 RMK A01 T10061024  RH  088%=      5-min Rain = 0
KST3 151058Z 23010KT M01/M02 A3033 RMK A01 T10061024  RH  088%=      5-min Rain = 0
KST3 151059Z 23010KT M01/M02 A3033 RMK A01 T10061024  RH  088%=      5-min Rain = 0
KST3 151100Z 23010KT M01/M02 A3033 RMK A01 T10061024  RH  088%=      5-min Rain = 0
KST3 151101Z 23010KT M01/M02 A3033 RMK A01 T10061024  RH  088%=      5-min Rain = 0
KST3 151102Z 23010KT M01/M02 A3033 RMK A01 T10061023  RH  088%=      5-min Rain = 0
KST3 151103Z 23010KT M01/M02 A3033 RMK A01 T10061023  RH  088%=      5-min Rain = 0
KST3 151104Z 23010KT M01/M02 A3033 RMK A01 T10051022  RH  088%=      5-min Rain = 0
KST3 151105Z 23010KT M01/M02 A3033 RMK A01 T10051022  RH  088%=      5-min Rain = 0
KST3 151106Z 22010KT M01/M02 A3033 RMK A01 T10051023  RH  088%=      5-min Rain = 0
KST3 151107Z 23010KT M01/M02 A3033 RMK A01 T10051023  RH  088%=      5-min Rain = 0
KST3 151108Z 22010KT M01/M02 A3033 RMK A01 T10051023  RH  088%=      5-min Rain = 0
KST3 151109Z 22010KT M01/M02 A3033 RMK A01 T10051023  RH  088%=      5-min Rain = 0
KST3 151110Z 22010KT M01/M02 A3033 RMK A01 T10051023  RH  088%=      5-min Rain = 0
KST3 151111Z 23010KT M01/M02 A3033 RMK A01 T10061023  RH  088%=      5-min Rain = 0
KST3 151112Z 22010KT M01/M02 A3033 RMK A01 T10061023  RH  088%=      5-min Rain = 0
KST3 151113Z 22010KT M01/M02 A3033 RMK A01 T10071024  RH  088%=      5-min Rain = 0
KST3 151114Z 22010KT M01/M02 A3033 RMK A01 T10071024  RH  088%=      5-min Rain = 0
KST3 151115Z 22010KT M01/M02 A3033 RMK A01 T10081024  RH  089%=      5-min Rain = 0
KST3 151116Z 22010KT M01/M02 A3033 RMK A01 T10081024  RH  089%=      5-min Rain = 0
KST3 151117Z 22010KT M01/M02 A3033 RMK A01 T10081023  RH  089%=      5-min Rain = 0
KST3 151118Z 22010KT M01/M02 A3033 RMK A01 T10081023  RH  090%=      5-min Rain = 0
KST3 151119Z 22010KT M01/M02 A3033 RMK A01 T10081023  RH  089%=      5-min Rain = 0
KST3 151120Z 22009KT M01/M02 A3033 RMK A01 T10081024  RH  089%=      5-min Rain = 0
KST3 151121Z 22010KT M01/M03 A3033 RMK A01 T10091025  RH  089%=      5-min Rain = 0
KST3 151122Z 22010KT M01/M03 A3033 RMK A01 T10101025  RH  089%=      5-min Rain = 0
KST3 151123Z 22010KT M01/M03 A3033 RMK A01 T10111025  RH  090%=      5-min Rain = 0
KST3 151124Z 23010KT M01/M02 A3033 RMK A01 T10111024  RH  090%=      5-min Rain = 0
KST3 151125Z 23010KT M01/M02 A3033 RMK A01 T10101024  RH  091%=      5-min Rain = 0
KST3 151126Z 22010KT M01/M02 A3033 RMK A01 T10101023  RH  091%=      5-min Rain = 0
KST3 151127Z 22010KT M01/M02 A3032 RMK A01 T10101024  RH  091%=      5-min Rain = 0
KST3 151128Z 22010KT M01/M02 A3032 RMK A01 T10111024  RH  091%=      5-min Rain = 0
KST3 151129Z 22009KT M01/M02 A3032 RMK A01 T10111023  RH  091%=      5-min Rain = 0
KST3 151130Z 22009KT M01/M02 A3032 RMK A01 T10101023  RH  091%=      5-min Rain = 0
KST3 151131Z 22009KT M01/M02 A3032 RMK A01 T10111024  RH  091%=      5-min Rain = 0
KST3 151132Z 23010KT M01/M02 A3032 RMK A01 T10111024  RH  091%=      5-min Rain = 0
KST3 151133Z 23010KT M01/M02 A3032 RMK A01 T10111023  RH  091%=      5-min Rain = 0
KST3 151134Z 22010KT M01/M02 A3032 RMK A01 T10111024  RH  091%=      5-min Rain = 0
KST3 151135Z 22010KT M01/M02 A3032 RMK A01 T10121024  RH  091%=      5-min Rain = 0
KST3 151136Z 22010KT M01/M02 A3032 RMK A01 T10121024  RH  091%=      5-min Rain = 0
KST3 151137Z 22010KT M01/M02 A3032 RMK A01 T10121024  RH  091%=      5-min Rain = 0
KST3 151138Z 22010KT M01/M02 A3032 RMK A01 T10121024  RH  091%=      5-min Rain = 0
KST3 151139Z 22010KT M01/M02 A3032 RMK A01 T10111023  RH  092%=      5-min Rain = 0
KST3 151140Z 22010KT M01/M02 A3032 RMK A01 T10111023  RH  092%=      5-min Rain = 0
KST3 151141Z 22010KT M01/M02 A3032 RMK A01 T10111023  RH  092%=      5-min Rain = 0
KST3 151142Z 22010KT M01/M02 A3032 RMK A01 T10111023  RH  092%=      5-min Rain = 0
KST3 151143Z 22010KT M01/M02 A3032 RMK A01 T10101022  RH  091%=      5-min Rain = 0
KST3 151144Z 23010KT M01/M02 A3032 RMK A01 T10101023  RH  091%=      5-min Rain = 0
KST3 151145Z 23010KT M01/M02 A3032 RMK A01 T10101023  RH  091%=      5-min Rain = 0
KST3 151146Z 22010KT M01/M02 A3032 RMK A01 T10101023  RH  091%=      5-min Rain = 0
KST3 151147Z 22010KT M01/M02 A3032 RMK A01 T10101023  RH  091%=      5-min Rain = 0
KST3 151148Z 22010KT M01/M02 A3032 RMK A01 T10091022  RH  091%=      5-min Rain = 0
KST3 151149Z 22010KT M01/M02 A3031 RMK A01 T10091022  RH  091%=      5-min Rain = 0
KST3 151150Z 22010KT M01/M02 A3031 RMK A01 T10091022  RH  091%=      5-min Rain = 0
KST3 151151Z 22010KT M01/M02 A3031 RMK A01 T10091022  RH  091%=      5-min Rain = 0
KST3 151152Z 22010KT M01/M02 A3031 RMK A01 T10101023  RH  090%=      5-min Rain = 0
KST3 151153Z 22009KT M01/M03 A3031 RMK A01 T10111025  RH  090%=      5-min Rain = 0
KST3 151154Z 22010KT M01/M02 A3031 RMK A01 T10111024  RH  091%=      5-min Rain = 0
KST3 151155Z 22010KT M01/M02 A3031 RMK A01 T10121024  RH  091%=      5-min Rain = 0
KST3 151156Z 22010KT M01/M02 A3031 RMK A01 T10121024  RH  091%=      5-min Rain = 0
KST3 151157Z 22009KT M01/M02 A3031 RMK A01 T10121024  RH  092%=      5-min Rain = 0
KST3 151158Z 22009KT M01/M02 A3031 RMK A01 T10121023  RH  092%=      5-min Rain = 0
KST3 151159Z 22009KT M01/M02 A3031 RMK A01 T10121023  RH  092%=      5-min Rain = 0
KST3 151200Z 22009KT M01/M02 A3031 RMK A01 T10121023  RH  092%=      5-min Rain = 0
KST3 151201Z 22009KT M01/M02 A3031 RMK A01 T10121023  RH  092%=      5-min Rain = 0
KST3 151202Z 22009KT M01/M02 A3031 RMK A01 T10121023  RH  092%=      5-min Rain = 0
KST3 151203Z 22009KT M01/M02 A3031 RMK A01 T10121023  RH  093%=      5-min Rain = 0
KST3 151204Z 22009KT M01/M02 A3031 RMK A01 T10121023  RH  093%=      5-min Rain = 0
KST3 151205Z 22009KT M01/M02 A3031 RMK A01 T10121022  RH  093%=      5-min Rain = 0
KST3 151206Z 22009KT M01/M02 A3031 RMK A01 T10121022  RH  093%=      5-min Rain = 0
KST3 151207Z 22009KT M01/M02 A3031 RMK A01 T10121022  RH  093%=      5-min Rain = 0
KST3 151208Z 22009KT M01/M02 A3031 RMK A01 T10121022  RH  093%=      5-min Rain = 0
KST3 151209Z 22010KT M01/M02 A3031 RMK A01 T10121022  RH  093%=      5-min Rain = 0
KST3 151210Z 22010KT M01/M02 A3031 RMK A01 T10121022  RH  093%=      5-min Rain = 0
KST3 151211Z 22010KT M01/M02 A3031 RMK A01 T10121022  RH  093%=      5-min Rain = 0
KST3 151212Z 22010KT M01/M02 A3031 RMK A01 T10121021  RH  093%=      5-min Rain = 0
KST3 151213Z 22009KT M01/M02 A3031 RMK A01 T10111021  RH  093%=      5-min Rain = 0
KST3 151214Z 22009KT M01/M02 A3031 RMK A01 T10111021  RH  093%=      5-min Rain = 0
KST3 151215Z 22009KT M01/M02 A3031 RMK A01 T10111021  RH  093%=      5-min Rain = 0
KST3 151216Z 22009KT M01/M02 A3031 RMK A01 T10111021  RH  093%=      5-min Rain = 0
KST3 151217Z 22009KT M01/M02 A3031 RMK A01 T10111021  RH  093%=      5-min Rain = 0
KST3 151218Z 22009KT M01/M02 A3031 RMK A01 T10111021  RH  093%=      5-min Rain = 0
KST3 151219Z 22009KT M01/M02 A3031 RMK A01 T10111021  RH  093%=      5-min Rain = 0
KST3 151220Z 22009KT M01/M02 A3031 RMK A01 T10111021  RH  093%=      5-min Rain = 0
KST3 151221Z 22010KT M01/M02 A3031 RMK A01 T10111021  RH  093%=      5-min Rain = 0
KST3 151222Z 22010KT M01/M02 A3031 RMK A01 T10111022  RH  093%=      5-min Rain = 0
KST3 151223Z 22010KT M01/M02 A3031 RMK A01 T10111021  RH  093%=      5-min Rain = 0
KST3 151224Z 22010KT M01/M02 A3031 RMK A01 T10111021  RH  093%=      5-min Rain = 0
KST3 151225Z 22010KT M01/M02 A3031 RMK A01 T10111021  RH  093%=      5-min Rain = 0
KST3 151226Z 22010KT M01/M02 A3031 RMK A01 T10121022  RH  093%=      5-min Rain = 0
KST3 151227Z 22010KT M01/M02 A3031 RMK A01 T10121022  RH  093%=      5-min Rain = 0
KST3 151228Z 23010KT M01/M02 A3031 RMK A01 T10121022  RH  093%=      5-min Rain = 0
KST3 151229Z 23010KT M01/M02 A3031 RMK A01 T10121022  RH  093%=      5-min Rain = 0
KST3 151230Z 23010KT M01/M02 A3031 RMK A01 T10121022  RH  093%=      5-min Rain = 0
KST3 151231Z 23010KT M01/M02 A3031 RMK A01 T10121022  RH  093%=      5-min Rain = 0
KST3 151232Z 23010KT M01/M02 A3031 RMK A01 T10121022  RH  093%=      5-min Rain = 0
KST3 151233Z 23010KT M01/M02 A3031 RMK A01 T10121022  RH  093%=      5-min Rain = 0
KST3 151234Z 23010KT M01/M02 A3031 RMK A01 T10111021  RH  093%=      5-min Rain = 0
KST3 151235Z 23010KT M01/M02 A3031 RMK A01 T10111020  RH  093%=      5-min Rain = 0
KST3 151236Z 23010KT M01/M02 A3031 RMK A01 T10101020  RH  093%=      5-min Rain = 0
KST3 151237Z 23010KT M01/M02 A3031 RMK A01 T10101020  RH  093%=      5-min Rain = 0
KST3 151238Z 23010KT M01/M02 A3031 RMK A01 T10101020  RH  093%=      5-min Rain = 0
KST3 151239Z 23010KT M01/M02 A3031 RMK A01 T10101021  RH  092%=      5-min Rain = 0
KST3 151240Z 23010KT M01/M02 A3031 RMK A01 T10101021  RH  092%=      5-min Rain = 0
KST3 151241Z 23010KT M01/M02 A3031 RMK A01 T10101021  RH  092%=      5-min Rain = 0
KST3 151242Z 23010KT M01/M02 A3031 RMK A01 T10101021  RH  092%=      5-min Rain = 0
KST3 151243Z 23010KT M01/M02 A3031 RMK A01 T10101021  RH  092%=      5-min Rain = 0
KST3 151244Z 23010KT M01/M02 A3031 RMK A01 T10101021  RH  092%=      5-min Rain = 0
KST3 151245Z 23010KT M01/M02 A3031 RMK A01 T10101021  RH  092%=      5-min Rain = 0
KST3 151246Z 23011KT M01/M02 A3031 RMK A01 T10101021  RH  092%=      5-min Rain = 0
KST3 151247Z 23011KT M01/M02 A3031 RMK A01 T10091020  RH  092%=      5-min Rain = 0
KST3 151248Z 23011KT M01/M02 A3031 RMK A01 T10091020  RH  092%=      5-min Rain = 0
KST3 151249Z 22011KT M01/M02 A3031 RMK A01 T10091019  RH  092%=      5-min Rain = 0
KST3 151250Z 22011KT M01/M02 A3031 RMK A01 T10091019  RH  093%=      5-min Rain = 0
KST3 151251Z 22011KT M01/M02 A3031 RMK A01 T10081019  RH  092%=      5-min Rain = 0
KST3 151252Z 22011KT M01/M02 A3031 RMK A01 T10081019  RH  092%=      5-min Rain = 0
KST3 151253Z 22011KT M01/M02 A3031 RMK A01 T10071018  RH  092%=      5-min Rain = 0
KST3 151254Z 22011KT M01/M02 A3031 RMK A01 T10061017  RH  093%=      5-min Rain = 0
KST3 151255Z 22011KT M01/M02 A3031 RMK A01 T10051016  RH  092%=      5-min Rain = 0
KST3 151256Z 22011KT M00/M02 A3031 RMK A01 T10041016  RH  092%=      5-min Rain = 0
KST3 151257Z 22012KT M00/M02 A3031 RMK A01 T10031016  RH  091%=      5-min Rain = 0
KST3 151258Z 22012KT M00/M02 A3031 RMK A01 T10021015  RH  091%=      5-min Rain = 0
KST3 151259Z 22012KT M00/M02 A3031 RMK A01 T10011015  RH  090%=      5-min Rain = 0
KST3 151300Z 22011KT 00/02 A3031 RMK A01 T00-00-16  RH  089%=      5-min Rain = 0
KST3 151301Z 22011KT 00/02 A3031 RMK A01 T00-00-16  RH  089%=      5-min Rain = 0
KST3 151302Z 22011KT M00/M02 A3031 RMK A01 T10011017  RH  089%=      5-min Rain = 0
KST3 151303Z 22011KT M00/M02 A3031 RMK A01 T10011017  RH  089%=      5-min Rain = 0
KST3 151304Z 22011KT M00/M02 A3031 RMK A01 T10011017  RH  089%=      5-min Rain = 0
KST3 151305Z 22012KT M00/M02 A3031 RMK A01 T10011017  RH  089%=      5-min Rain = 0
KST3 151306Z 22011KT M00/M02 A3031 RMK A01 T10011017  RH  089%=      5-min Rain = 0
KST3 151307Z 22011KT M00/M02 A3031 RMK A01 T10011017  RH  089%=      5-min Rain = 0
KST3 151308Z 22011KT M00/M02 A3031 RMK A01 T10011018  RH  089%=      5-min Rain = 0
KST3 151309Z 22012KT M00/M02 A3031 RMK A01 T10011017  RH  089%=      5-min Rain = 0
KST3 151310Z 22012KT M00/M02 A3031 RMK A01 T10021018  RH  089%=      5-min Rain = 0
KST3 151311Z 22012KT M00/M02 A3031 RMK A01 T10011018  RH  089%=      5-min Rain = 0
KST3 151312Z 22011KT M00/M02 A3031 RMK A01 T10011017  RH  089%=      5-min Rain = 0
KST3 151313Z 22012KT 00/02 A3031 RMK A01 T00-00-17  RH  088%=      5-min Rain = 0
KST3 151314Z 22011KT 00/02 A3031 RMK A01 T00-00-18  RH  088%=      5-min Rain = 0
KST3 151315Z 22011KT 00/02 A3031 RMK A01 T00000-18  RH  088%=      5-min Rain = 0
KST3 151316Z 22011KT 00/M02 A3031 RMK A01 T00011017  RH  088%=      5-min Rain = 0
KST3 151317Z 22011KT 00/M02 A3031 RMK A01 T00011017  RH  087%=      5-min Rain = 0
KST3 151318Z 22011KT 00/M02 A3031 RMK A01 T00021017  RH  087%=      5-min Rain = 0
KST3 151319Z 22011KT 00/M02 A3031 RMK A01 T00021018  RH  087%=      5-min Rain = 0
KST3 151320Z 22011KT 00/M02 A3031 RMK A01 T00031018  RH  086%=      5-min Rain = 0
KST3 151321Z 22010KT 00/M02 A3031 RMK A01 T00031018  RH  086%=      5-min Rain = 0
KST3 151322Z 22011KT 00/M02 A3031 RMK A01 T00031019  RH  086%=      5-min Rain = 0
KST3 151323Z 22011KT 00/M02 A3031 RMK A01 T00031018  RH  086%=      5-min Rain = 0
KST3 151324Z 22011KT 00/M02 A303 RMK A01 T00031018  RH  086%=      5-min Rain = 0
KST3 151325Z 22010KT 00/M02 A3031 RMK A01 T00031018  RH  086%=      5-min Rain = 0
KST3 151326Z 22011KT 00/M02 A3031 RMK A01 T00031018  RH  086%=      5-min Rain = 0
KST3 151327Z 22011KT 00/M02 A3031 RMK A01 T00031018  RH  086%=      5-min Rain = 0
KST3 151328Z 22010KT 00/M02 A3031 RMK A01 T00031018  RH  086%=      5-min Rain = 0
KST3 151329Z 22010KT 00/M02 A3031 RMK A01 T00021018  RH  086%=      5-min Rain = 0
KST3 151330Z 22010KT 00/M02 A3031 RMK A01 T00021018  RH  086%=      5-min Rain = 0
KST3 151331Z 22011KT 00/M02 A3031 RMK A01 T00021019  RH  086%=      5-min Rain = 0
KST3 151332Z 22011KT 00/M02 A3031 RMK A01 T00021018  RH  086%=      5-min Rain = 0
KST3 151333Z 22011KT 00/M02 A303 RMK A01 T00031018  RH  086%=      5-min Rain = 0
KST3 151334Z 22011KT 00/M02 A3031 RMK A01 T00021019  RH  086%=      5-min Rain = 0
KST3 151335Z 22011KT 00/M02 A3031 RMK A01 T00031018  RH  086%=      5-min Rain = 0
KST3 151336Z 22011KT 00/M02 A3031 RMK A01 T00031018  RH  086%=      5-min Rain = 0
KST3 151337Z 22011KT 00/M02 A3031 RMK A01 T00031018  RH  086%=      5-min Rain = 0
KST3 151338Z 22011KT 00/M02 A3031 RMK A01 T00041018  RH  086%=      5-min Rain = 0
KST3 151339Z 22011KT 00/M02 A3031 RMK A01 T00031018  RH  085%=      5-min Rain = 0
KST3 151340Z 22011KT 00/M02 A3031 RMK A01 T00041018  RH  085%=      5-min Rain = 0
KST3 151341Z 22012KT 00/M02 A3031 RMK A01 T00041018  RH  085%=      5-min Rain = 0
KST3 151342Z 22011KT 01/M02 A3031 RMK A01 T00051017  RH  085%=      5-min Rain = 0
KST3 151343Z 22011KT 01/M02 A3031 RMK A01 T00051017  RH  085%=      5-min Rain = 0
KST3 151344Z 22011KT 01/M02 A3031 RMK A01 T00051018  RH  085%=      5-min Rain = 0
KST3 151345Z 22011KT 01/M02 A3031 RMK A01 T00051018  RH  085%=      5-min Rain = 0
KST3 151346Z 22011KT 01/M02 A3031 RMK A01 T00051017  RH  085%=      5-min Rain = 0
KST3 151347Z 22011KT 01/M02 A3031 RMK A01 T00061017  RH  085%=      5-min Rain = 0
KST3 151348Z 22011KT 01/M02 A3031 RMK A01 T00061016  RH  085%=      5-min Rain = 0
KST3 151349Z 22011KT 01/M02 A303 RMK A01 T00061016  RH  085%=      5-min Rain = 0
KST3 151350Z 22011KT 01/M02 A3031 RMK A01 T00071016  RH  085%=      5-min Rain = 0
KST3 151351Z 22011KT 01/M02 A3031 RMK A01 T00071016  RH  085%=      5-min Rain = 0
KST3 151352Z 22011KT 01/M02 A3031 RMK A01 T00071015  RH  085%=      5-min Rain = 0
KST3 151353Z 22011KT 01/M02 A3031 RMK A01 T00071015  RH  085%=      5-min Rain = 0
KST3 151354Z 22011KT 01/M01 A3031 RMK A01 T00081014  RH  085%=      5-min Rain = 0
KST3 151355Z 22011KT 01/M01 A3031 RMK A01 T00081014  RH  085%=      5-min Rain = 0
KST3 151356Z 23011KT 01/M01 A3031 RMK A01 T00081014  RH  085%=      5-min Rain = 0
KST3 151357Z 23011KT 01/M01 A3031 RMK A01 T00091014  RH  085%=      5-min Rain = 0
KST3 151358Z 22010KT 01/M01 A3031 RMK A01 T00091014  RH  085%=      5-min Rain = 0
KST3 151359Z 23011KT 01/M01 A3031 RMK A01 T00091013  RH  085%=      5-min Rain = 0
KST3 151400Z 22010KT 01/M01 A3031 RMK A01 T00101012  RH  085%=      5-min Rain = 0
KST3 151401Z 23011KT 01/M01 A3031 RMK A01 T00111012  RH  085%=      5-min Rain = 0
KST3 151402Z 23010KT 01/M01 A3031 RMK A01 T00111012  RH  085%=      5-min Rain = 0
KST3 151403Z 22011KT 01/M01 A3031 RMK A01 T00121012  RH  084%=      5-min Rain = 0
KST3 151404Z 22010KT 01/M01 A3031 RMK A01 T00121011  RH  084%=      5-min Rain = 0
KST3 151405Z 22010KT 01/M01 A3031 RMK A01 T00131011  RH  084%=      5-min Rain = 0
KST3 151406Z 23011KT 01/M01 A3031 RMK A01 T00131011  RH  084%=      5-min Rain = 0
KST3 151407Z 23011KT 01/M01 A3031 RMK A01 T00131011  RH  084%=      5-min Rain = 0
KST3 151408Z 22011KT 01/M01 A3031 RMK A01 T00141011  RH  084%=      5-min Rain = 0
KST3 151409Z 22011KT 01/M01 A3031 RMK A01 T00141011  RH  084%=      5-min Rain = 0
KST3 151410Z 22011KT 02/M01 A3031 RMK A01 T00151011  RH  083%=      5-min Rain = 0
KST3 151411Z 22011KT 02/M01 A3031 RMK A01 T00151010  RH  083%=      5-min Rain = 0
KST3 151412Z 22010KT 02/M01 A3031 RMK A01 T00161010  RH  083%=      5-min Rain = 0
KST3 151413Z 22010KT 02/M01 A3031 RMK A01 T00161010  RH  083%=      5-min Rain = 0
KST3 151414Z 23011KT 02/M01 A3031 RMK A01 T00161009  RH  083%=      5-min Rain = 0
KST3 151415Z 22011KT 02/M01 A3031 RMK A01 T00171009  RH  083%=      5-min Rain = 0
KST3 151416Z 22011KT 02/M01 A3031 RMK A01 T00181009  RH  082%=      5-min Rain = 0
KST3 151417Z 23011KT 02/M01 A3031 RMK A01 T00181009  RH  082%=      5-min Rain = 0
KST3 151418Z 23011KT 02/M01 A3031 RMK A01 T00191009  RH  082%=      5-min Rain = 0
KST3 151419Z 23010KT 02/M01 A3031 RMK A01 T00191009  RH  082%=      5-min Rain = 0
KST3 151420Z 22011KT 02/M01 A3031 RMK A01 T00201008  RH  082%=      5-min Rain = 0
KST3 151421Z 23011KT 02/M01 A3031 RMK A01 T00201008  RH  082%=      5-min Rain = 0
KST3 151422Z 22011KT 02/M01 A3031 RMK A01 T00201008  RH  082%=      5-min Rain = 0
KST3 151423Z 22011KT 02/M01 A3031 RMK A01 T00211007  RH  082%=      5-min Rain = 0
KST3 151424Z 23010KT 02/M01 A3031 RMK A01 T00211008  RH  081%=      5-min Rain = 0
KST3 151425Z 22010KT 02/M01 A3031 RMK A01 T00221007  RH  082%=      5-min Rain = 0
KST3 151426Z 22012KT 02/M01 A3031 RMK A01 T00231006  RH  082%=      5-min Rain = 0
KST3 151427Z 22012KT 02/M01 A3031 RMK A01 T00231007  RH  081%=      5-min Rain = 0
KST3 151428Z 22010KT 02/M01 A3031 RMK A01 T00241007  RH  080%=      5-min Rain = 0
KST3 151429Z 22009KT 02/M01 A3031 RMK A01 T00241006  RH  081%=      5-min Rain = 0
KST3 151430Z 22011KT 03/M01 A3031 RMK A01 T00251005  RH  081%=      5-min Rain = 0
KST3 151431Z 22012KT 03/M01 A3031 RMK A01 T00261006  RH  079%=      5-min Rain = 0
KST3 151432Z 23012KT 03/M01 A3031 RMK A01 T00261007  RH  079%=      5-min Rain = 0
KST3 151433Z 22012KT 03/M01 A3031 RMK A01 T00271006  RH  078%=      5-min Rain = 0
KST3 151434Z 22012KT 03/M01 A3031 RMK A01 T00281006  RH  078%=      5-min Rain = 0
KST3 151435Z 22013KT 03/M01 A3031 RMK A01 T00291006  RH  078%=      5-min Rain = 0
KST3 151436Z 22012KT 03/M01 A3031 RMK A01 T00291006  RH  077%=      5-min Rain = 0
KST3 151437Z 22012KT 03/M01 A3031 RMK A01 T00301006  RH  077%=      5-min Rain = 0
KST3 151438Z 22013KT 03/M01 A3031 RMK A01 T00311006  RH  077%=      5-min Rain = 0
KST3 151439Z 22013KT 03/M01 A3031 RMK A01 T00321006  RH  076%=      5-min Rain = 0
KST3 151440Z 22014KT 03/M01 A3031 RMK A01 T00321006  RH  076%=      5-min Rain = 0
KST3 151441Z 22013KT 03/M01 A3031 RMK A01 T00321006  RH  076%=      5-min Rain = 0
KST3 151442Z 22012KT 03/M00 A3031 RMK A01 T00331004  RH  076%=      5-min Rain = 0
KST3 151443Z 22013KT 03/M00 A3031 RMK A01 T00341004  RH  076%=      5-min Rain = 0
KST3 151444Z 22013KT 04/M01 A3031 RMK A01 T00351005  RH  075%=      5-min Rain = 0
KST3 151445Z 22012KT 04/M00 A3031 RMK A01 T00351004  RH  075%=      5-min Rain = 0
KST3 151446Z 22014KT 04/M00 A3031 RMK A01 T00371002  RH  076%=      5-min Rain = 0
KST3 151447Z 22014KT 04/M00 A3031 RMK A01 T00371004  RH  075%=      5-min Rain = 0
KST3 151448Z 22011KT 04/M00 A3031 RMK A01 T00371004  RH  075%=      5-min Rain = 0
KST3 151449Z 22013KT 04/M00 A3031 RMK A01 T00381002  RH  075%=      5-min Rain = 0
KST3 151450Z 22013KT 04/M00 A3031 RMK A01 T00391003  RH  074%=      5-min Rain = 0
KST3 151451Z 22013KT 04/M00 A3031 RMK A01 T00391004  RH  074%=      5-min Rain = 0
KST3 151452Z 22011KT 04/M00 A3031 RMK A01 T00391004  RH  073%=      5-min Rain = 0
KST3 151453Z 22013KT 04/M00 A3031 RMK A01 T00411001  RH  074%=      5-min Rain = 0
KST3 151454Z 22013KT 04/M00 A3031 RMK A01 T00411002  RH  073%=      5-min Rain = 0
KST3 151455Z 22012KT 04/M00 A3031 RMK A01 T00421003  RH  073%=      5-min Rain = 0
KST3 151456Z 22013KT 04/M00 A3031 RMK A01 T00431001  RH  073%=      5-min Rain = 0
KST3 151457Z 22015KT 04/M00 A3031 RMK A01 T00441003  RH  072%=      5-min Rain = 0
KST3 151458Z 22015KT 04/M00 A3031 RMK A01 T00441003  RH  071%=      5-min Rain = 0
KST3 151459Z 22015KT 04/M00 A3031 RMK A01 T00441004  RH  071%=      5-min Rain = 0
KST3 151500Z 22015KT 05/M00 A3031 RMK A01 T00451004  RH  071%=      5-min Rain = 0
KST3 151501Z 22015KT 05/M00 A3031 RMK A01 T00461003  RH  071%=      5-min Rain = 0
KST3 151502Z 22015KT 05/M00 A3031 RMK A01 T00471003  RH  070%=      5-min Rain = 0
KST3 151503Z 22014KT 05/M00 A3031 RMK A01 T00471004  RH  069%=      5-min Rain = 0
KST3 151504Z 22015KT 05/M00 A3031 RMK A01 T00481004  RH  069%=      5-min Rain = 0
KST3 151505Z 22015KT 05/M00 A3031 RMK A01 T00481004  RH  069%=      5-min Rain = 0
KST3 151506Z 22015KT 05/M00 A3031 RMK A01 T00491003  RH  069%=      5-min Rain = 0
KST3 151507Z 22013KT 05/M00 A3031 RMK A01 T00501002  RH  069%=      5-min Rain = 0
KST3 151508Z 22012KT 05/M00 A3031 RMK A01 T00511002  RH  069%=      5-min Rain = 0
KST3 151509Z 22013KT 05/M00 A3031 RMK A01 T00531001  RH  068%=      5-min Rain = 0
KST3 151510Z 22014KT 05/M00 A3031 RMK A01 T00541002  RH  067%=      5-min Rain = 0
KST3 151511Z 22013KT 05/M00 A3031 RMK A01 T00541002  RH  067%=      5-min Rain = 0
KST3 151512Z 22013KT 06/M00 A3031 RMK A01 T00551002  RH  067%=      5-min Rain = 0
KST3 151513Z 21017KT 06/M00 A3031 RMK A01 T00551003  RH  066%=      5-min Rain = 0
KST3 151514Z 22017KT 06/M01 A3031 RMK A01 T00561005  RH  065%=      5-min Rain = 0
KST3 151515Z 22014KT 06/M00 A3031 RMK A01 T00561004  RH  065%=      5-min Rain = 0
KST3 151516Z 22014KT 06/M00 A3031 RMK A01 T00571003  RH  066%=      5-min Rain = 0
KST3 151517Z 22014KT 06/M00 A3031 RMK A01 T00581003  RH  065%=      5-min Rain = 0
KST3 151518Z 22015KT 06/M00 A303 RMK A01 T00591003  RH  064%=      5-min Rain = 0
KST3 151519Z 22013KT 06/M00 A303 RMK A01 T00591004  RH  064%=      5-min Rain = 0
KST3 151520Z 22013G18KT 06/M00 A303 RMK A01 T00601002  RH  064%=      5-min Rain = 0
KST3 151521Z 21015KT 06/M00 A303 RMK A01 T00621002  RH  064%=      5-min Rain = 0
KST3 151522Z 22015KT 06/M00 A303 RMK A01 T00631003  RH  063%=      5-min Rain = 0
KST3 151523Z 22015KT 06/M00 A303 RMK A01 T00621004  RH  062%=      5-min Rain = 0
KST3 151524Z 21015KT 06/M00 A303 RMK A01 T00631003  RH  063%=      5-min Rain = 0
KST3 151525Z 21015KT 06/M00 A303 RMK A01 T00641003  RH  062%=      5-min Rain = 0
KST3 151526Z 21015KT 06/M00 A303 RMK A01 T00641003  RH  062%=      5-min Rain = 0
KST3 151527Z 21015KT 07/M00 A303 RMK A01 T00651003  RH  062%=      5-min Rain = 0
KST3 151528Z 21013KT 07/M00 A303 RMK A01 T00651004  RH  061%=      5-min Rain = 0
KST3 151529Z 21013KT 07/M00 A303 RMK A01 T00651003  RH  062%=      5-min Rain = 0
KST3 151530Z 22014KT 07/M00 A303 RMK A01 T00671002  RH  061%=      5-min Rain = 0
KST3 151531Z 22013KT 07/M00 A303 RMK A01 T00681002  RH  061%=      5-min Rain = 0
KST3 151532Z 21012KT 07/M00 A303 RMK A01 T00691001  RH  061%=      5-min Rain = 0
KST3 151533Z 22015KT 07/00 A303 RMK A01 T00710000  RH  061%=      5-min Rain = 0
KST3 151534Z 21015KT 07/M00 A303 RMK A01 T00711002  RH  060%=      5-min Rain = 0
KST3 151535Z 22015KT 07/M00 A303 RMK A01 T00711003  RH  059%=      5-min Rain = 0
KST3 151536Z 21016KT 07/M00 A303 RMK A01 T00701004  RH  059%=      5-min Rain = 0
KST3 151537Z 22015KT 07/M00 A303 RMK A01 T00701004  RH  059%=      5-min Rain = 0
KST3 151538Z 22015KT 07/M00 A303 RMK A01 T00701004  RH  059%=      5-min Rain = 0
KST3 151539Z 22014KT 07/M00 A303 RMK A01 T00701004  RH  059%=      5-min Rain = 0
KST3 151540Z 21013KT 07/M00 A303 RMK A01 T00711003  RH  059%=      5-min Rain = 0
KST3 151541Z 21013KT 07/M00 A303 RMK A01 T00731003  RH  059%=      5-min Rain = 0
KST3 151542Z 21012KT 07/M00 A303 RMK A01 T00741001  RH  059%=      5-min Rain = 0
KST3 151543Z 21015KT 08/M00 A303 RMK A01 T00761001  RH  058%=      5-min Rain = 0
KST3 151544Z 21014KT 08/M00 A303 RMK A01 T00771004  RH  057%=      5-min Rain = 0
KST3 151545Z 21015KT 08/M00 A303 RMK A01 T00761004  RH  057%=      5-min Rain = 0
KST3 151546Z 22015KT 08/M00 A303 RMK A01 T00761004  RH  057%=      5-min Rain = 0
KST3 151547Z 21013KT 08/M00 A303 RMK A01 T00771004  RH  057%=      5-min Rain = 0
KST3 151548Z 21012KT 08/M00 A303 RMK A01 T00791001  RH  057%=      5-min Rain = 0
KST3 151549Z 21015KT 08/M00 A303 RMK A01 T00811001  RH  056%=      5-min Rain = 0
KST3 151550Z 21015KT 08/M00 A303 RMK A01 T00821003  RH  055%=      5-min Rain = 0
KST3 151551Z 22015KT 08/M00 A303 RMK A01 T00821003  RH  055%=      5-min Rain = 0
KST3 151552Z 21015KT 08/M00 A303 RMK A01 T00821003  RH  055%=      5-min Rain = 0
KST3 151553Z 21016KT 08/M00 A303 RMK A01 T00831003  RH  055%=      5-min Rain = 0
KST3 151554Z 21013KT 08/M00 A303 RMK A01 T00831004  RH  054%=      5-min Rain = 0
KST3 151555Z 21012KT 09/00 A303 RMK A01 T008500-0  RH  055%=      5-min Rain = 0
KST3 151556Z 22015KT 09/M00 A303 RMK A01 T00881001  RH  054%=      5-min Rain = 0
KST3 151557Z 21014KT 09/M01 A303 RMK A01 T00871005  RH  052%=      5-min Rain = 0
KST3 151558Z 21015KT 09/M00 A303 RMK A01 T00871004  RH  053%=      5-min Rain = 0
KST3 151559Z 21016KT 09/M00 A303 RMK A01 T00871004  RH  053%=      5-min Rain = 0
KST3 151600Z 21015KT 09/M01 A303 RMK A01 T00861005  RH  053%=      5-min Rain = 0
KST3 151601Z 22016KT 09/M01 A303 RMK A01 T00871005  RH  053%=      5-min Rain = 0
KST3 151602Z 22018KT 09/M01 A303 RMK A01 T00871005  RH  052%=      5-min Rain = 0
KST3 151603Z 22017KT 09/M01 A3029 RMK A01 T00861007  RH  052%=      5-min Rain = 0
KST3 151604Z 21018KT 09/M01 A3029 RMK A01 T00861006  RH  052%=      5-min Rain = 0
KST3 151605Z 21019KT 09/M01 A3029 RMK A01 T00861007  RH  052%=      5-min Rain = 0
KST3 151606Z 22016G21KT 09/M01 A3029 RMK A01 T00861007  RH  052%=      5-min Rain = 0
KST3 151607Z 22018KT 09/M01 A3029 RMK A01 T00871005  RH  052%=      5-min Rain = 0
KST3 151608Z 22018KT 09/M01 A3029 RMK A01 T00881006  RH  052%=      5-min Rain = 0
KST3 151609Z 21019KT 09/M01 A3029 RMK A01 T00871008  RH  051%=      5-min Rain = 0
KST3 151610Z 21017KT 09/M01 A3029 RMK A01 T00851008  RH  052%=      5-min Rain = 0
KST3 151611Z 21019KT 09/M01 A3029 RMK A01 T00861006  RH  052%=      5-min Rain = 0
KST3 151612Z 21019KT 09/M01 A3029 RMK A01 T00871007  RH  052%=      5-min Rain = 0
KST3 151613Z 21019KT 09/M01 A3029 RMK A01 T00871006  RH  052%=      5-min Rain = 0
KST3 151614Z 21018G23KT 09/M01 A3029 RMK A01 T00871008  RH  051%=      5-min Rain = 0
KST3 151615Z 21018KT 09/M01 A3029 RMK A01 T00881006  RH  052%=      5-min Rain = 0
KST3 151616Z 21021KT 09/M01 A3029 RMK A01 T00891007  RH  051%=      5-min Rain = 0
KST3 151617Z 22019KT 09/M01 A3029 RMK A01 T00881008  RH  051%=      5-min Rain = 0
KST3 151618Z 22016G21KT 09/M01 A3029 RMK A01 T00881006  RH  052%=      5-min Rain = 0
KST3 151619Z 22017KT 09/M01 A3029 RMK A01 T00901006  RH  051%=      5-min Rain = 0
KST3 151620Z 21016KT 09/M01 A3029 RMK A01 T00911006  RH  051%=      5-min Rain = 0
KST3 151621Z 22019KT 09/M01 A3029 RMK A01 T00911006  RH  051%=      5-min Rain = 0
KST3 151622Z 22019KT 09/M01 A3029 RMK A01 T00911007  RH  050%=      5-min Rain = 0
KST3 151623Z 22017KT 09/M01 A3029 RMK A01 T00901008  RH  051%=      5-min Rain = 0
KST3 151624Z 21015KT 09/M01 A3029 RMK A01 T00911005  RH  051%=      5-min Rain = 0
KST3 151625Z 21017KT 09/M00 A3029 RMK A01 T00941004  RH  051%=      5-min Rain = 0
KST3 151626Z 20020KT 10/M01 A3029 RMK A01 T00951006  RH  049%=      5-min Rain = 0
KST3 151627Z 21018KT 09/M01 A3029 RMK A01 T00931007  RH  049%=      5-min Rain = 0
KST3 151628Z 21019KT 09/M01 A3029 RMK A01 T00921007  RH  050%=      5-min Rain = 0
KST3 151629Z 22018KT 09/M01 A3029 RMK A01 T00931006  RH  050%=      5-min Rain = 0
KST3 151630Z 22020KT 09/M01 A3029 RMK A01 T00941005  RH  050%=      5-min Rain = 0
KST3 151631Z 22018KT 09/M01 A3029 RMK A01 T00941006  RH  049%=      5-min Rain = 0
KST3 151632Z 22018KT 09/M01 A3029 RMK A01 T00941006  RH  050%=      5-min Rain = 0
KST3 151633Z 22014KT 10/M01 A3029 RMK A01 T00961005  RH  049%=      5-min Rain = 0
KST3 151634Z 22013KT 10/M00 A3029 RMK A01 T00991002  RH  049%=      5-min Rain = 0
KST3 151635Z 21015KT 10/M00 A3029 RMK A01 T01031001  RH  049%=      5-min Rain = 0
KST3 151636Z 22014KT 10/M00 A3029 RMK A01 T01041002  RH  048%=      5-min Rain = 0
KST3 151637Z 22012KT 10/M00 A3029 RMK A01 T01041003  RH  048%=      5-min Rain = 0
KST3 151638Z 22013KT 11/M00 A3029 RMK A01 T01051001  RH  048%=      5-min Rain = 0
KST3 151639Z 22016KT 11/00 A3029 RMK A01 T01090000  RH  047%=      5-min Rain = 0
KST3 151640Z 22014KT 11/M00 A3029 RMK A01 T01071003  RH  047%=      5-min Rain = 0
KST3 151641Z 22014KT 11/M00 A3029 RMK A01 T01071001  RH  047%=      5-min Rain = 0
KST3 151642Z 22012KT 11/M00 A3029 RMK A01 T01081002  RH  047%=      5-min Rain = 0
KST3 151643Z 22016G21KT 11/00 A3029 RMK A01 T01100001  RH  047%=      5-min Rain = 0
KST3 151644Z 22019KT 11/M00 A3029 RMK A01 T01101002  RH  046%=      5-min Rain = 0
KST3 151645Z 22015KT 11/M00 A3029 RMK A01 T01061004  RH  046%=      5-min Rain = 0
KST3 151646Z 22015KT 11/M00 A3029 RMK A01 T01061002  RH  047%=      5-min Rain = 0
KST3 151647Z 22016KT 11/M00 A3029 RMK A01 T01081002  RH  047%=      5-min Rain = 0
KST3 151648Z 22017KT 11/M00 A3029 RMK A01 T01071002  RH  047%=      5-min Rain = 0
KST3 151649Z 23016KT 11/M00 A3029 RMK A01 T01071002  RH  047%=      5-min Rain = 0
KST3 151650Z 22017KT 11/M00 A3029 RMK A01 T01091001  RH  047%=      5-min Rain = 0
KST3 151651Z 22015KT 11/M00 A3029 RMK A01 T01091001  RH  046%=      5-min Rain = 0
KST3 151652Z 22016KT 11/00 A3029 RMK A01 T01120000  RH  046%=      5-min Rain = 0
KST3 151653Z 22017KT 11/M00 A3029 RMK A01 T01111002  RH  045%=      5-min Rain = 0
KST3 151654Z 22018KT 11/M00 A3029 RMK A01 T01111002  RH  046%=      5-min Rain = 0
KST3 151655Z 22017KT 11/M00 A3029 RMK A01 T01111002  RH  046%=      5-min Rain = 0
KST3 151656Z 22013KT 11/M00 A3029 RMK A01 T01121001  RH  046%=      5-min Rain = 0
KST3 151657Z 23013KT 11/00 A3029 RMK A01 T011300-0  RH  046%=      5-min Rain = 0
KST3 151658Z 22016KT 12/00 A3029 RMK A01 T01150000  RH  045%=      5-min Rain = 0
KST3 151659Z 22014G21KT 12/M00 A3029 RMK A01 T01151001  RH  045%=      5-min Rain = 0
KST3 151700Z 22016KT 12/M00 A3029 RMK A01 T01151001  RH  045%=      5-min Rain = 0
KST3 151701Z 21017KT 12/M00 A3028 RMK A01 T01161002  RH  044%=      5-min Rain = 0
KST3 151702Z 21016KT 12/M00 A3028 RMK A01 T01161003  RH  044%=      5-min Rain = 0
KST3 151703Z 22013KT 12/M00 A3028 RMK A01 T01151002  RH  044%=      5-min Rain = 0
KST3 151704Z 21015KT 12/00 A3028 RMK A01 T01170000  RH  045%=      5-min Rain = 0
KST3 151705Z 21014KT 12/M00 A3028 RMK A01 T01181002  RH  044%=      5-min Rain = 0
KST3 151706Z 21013KT 12/M00 A3028 RMK A01 T01191001  RH  044%=      5-min Rain = 0
KST3 151707Z 22013KT 12/00 A3028 RMK A01 T01210000  RH  043%=      5-min Rain = 0
KST3 151708Z 22018KT 12/M00 A3028 RMK A01 T01221001  RH  043%=      5-min Rain = 0
KST3 151709Z 22017KT 12/M00 A3028 RMK A01 T01221004  RH  042%=      5-min Rain = 0
KST3 151710Z 21016KT 12/M01 A3028 RMK A01 T01201005  RH  042%=      5-min Rain = 0
KST3 151711Z 22014G19KT 12/M00 A3028 RMK A01 T01201003  RH  043%=      5-min Rain = 0
KST3 151712Z 22014KT 12/M00 A3028 RMK A01 T01221001  RH  042%=      5-min Rain = 0
KST3 151713Z 22016KT 12/M00 A3028 RMK A01 T01241002  RH  042%=      5-min Rain = 0
KST3 151714Z 21015KT 12/M00 A3028 RMK A01 T01231002  RH  042%=      5-min Rain = 0
KST3 151715Z 21014KT 12/M00 A3028 RMK A01 T01241002  RH  042%=      5-min Rain = 0
KST3 151716Z 21014KT 13/M00 A3028 RMK A01 T01251002  RH  042%=      5-min Rain = 0
KST3 151717Z 22015KT 13/M00 A3028 RMK A01 T01271001  RH  041%=      5-min Rain = 0
KST3 151718Z 22016KT 13/M00 A3028 RMK A01 T01281003  RH  040%=      5-min Rain = 0
KST3 151719Z 22015KT 13/M00 A3028 RMK A01 T01271004  RH  040%=      5-min Rain = 0
KST3 151720Z 21016KT 13/M00 A3028 RMK A01 T01271004  RH  040%=      5-min Rain = 0
KST3 151721Z 22017KT 13/M01 A3028 RMK A01 T01271006  RH  040%=      5-min Rain = 0
KST3 151722Z 22012G18KT 13/M01 A3028 RMK A01 T01281005  RH  040%=      5-min Rain = 0
KST3 151723Z 21013KT 13/M00 A3027 RMK A01 T01321001  RH  040%=      5-min Rain = 0
KST3 151724Z 21015KT 13/M00 A3027 RMK A01 T01331003  RH  039%=      5-min Rain = 0
KST3 151725Z 21016KT 13/M00 A3027 RMK A01 T01331004  RH  039%=      5-min Rain = 0
KST3 151726Z 22017KT 13/M01 A3027 RMK A01 T01311007  RH  039%=      5-min Rain = 0
KST3 151727Z 22016KT 13/M01 A3027 RMK A01 T01301007  RH  039%=      5-min Rain = 0
KST3 151728Z 22015KT 13/M01 A3027 RMK A01 T01291006  RH  039%=      5-min Rain = 0
KST3 151729Z 21015KT 13/M01 A3027 RMK A01 T01301005  RH  039%=      5-min Rain = 0
KST3 151730Z 21012KT 13/M00 A3027 RMK A01 T01331003  RH  039%=      5-min Rain = 0
KST3 151731Z 21012KT 14/00 A3027 RMK A01 T013800-0  RH  039%=      5-min Rain = 0
KST3 151732Z 22014KT 14/M00 A3027 RMK A01 T01411003  RH  037%=      5-min Rain = 0
KST3 151733Z 22017KT 14/M00 A3027 RMK A01 T01401004  RH  037%=      5-min Rain = 0
KST3 151734Z 21015G20KT 14/M01 A3027 RMK A01 T01391006  RH  037%=      5-min Rain = 0
KST3 151735Z 22015KT 14/M01 A3027 RMK A01 T01371005  RH  037%=      5-min Rain = 0
KST3 151736Z 22017KT 14/M01 A3027 RMK A01 T01371007  RH  037%=      5-min Rain = 0
KST3 151737Z 22017KT 14/M01 A3027 RMK A01 T01381009  RH  036%=      5-min Rain = 0
KST3 151738Z 21018KT 14/M01 A3027 RMK A01 T01381009  RH  036%=      5-min Rain = 0
KST3 151739Z 21015KT 14/M01 A3027 RMK A01 T01381010  RH  036%=      5-min Rain = 0
KST3 151740Z 21015KT 14/M01 A3027 RMK A01 T01381008  RH  037%=      5-min Rain = 0
KST3 151741Z 20019KT 14/M01 A3026 RMK A01 T01391009  RH  036%=      5-min Rain = 0
KST3 151742Z 21018KT 14/M01 A3026 RMK A01 T01391012  RH  035%=      5-min Rain = 0
KST3 151743Z 21018KT 14/M01 A3026 RMK A01 T01391012  RH  035%=      5-min Rain = 0
KST3 151744Z 21020KT 14/M01 A3026 RMK A01 T01391011  RH  036%=      5-min Rain = 0
KST3 151745Z 21017G22KT 14/M01 A3026 RMK A01 T01391012  RH  035%=      5-min Rain = 0
KST3 151746Z 22019KT 14/M01 A3026 RMK A01 T01391012  RH  035%=      5-min Rain = 0
KST3 151747Z 21016KT 14/M01 A3026 RMK A01 T01401011  RH  035%=      5-min Rain = 0
KST3 151748Z 21015G20KT 14/M01 A3026 RMK A01 T01441008  RH  035%=      5-min Rain = 0
KST3 151749Z 21018G23KT 15/M01 A3026 RMK A01 T01471012  RH  034%=      5-min Rain = 0
KST3 151750Z 21019KT 15/M01 A3026 RMK A01 T01461014  RH  033%=      5-min Rain = 0
KST3 151751Z 21018KT 15/M01 A3026 RMK A01 T01461014  RH  033%=      5-min Rain = 0
KST3 151752Z 21019KT 15/M01 A3026 RMK A01 T01461013  RH  033%=      5-min Rain = 0
KST3 151753Z 20015KT 15/M01 A3026 RMK A01 T01451014  RH  033%=      5-min Rain = 0
KST3 151754Z 21017KT 15/M01 A3026 RMK A01 T01461012  RH  034%=      5-min Rain = 0
KST3 151755Z 21018KT 15/M01 A3026 RMK A01 T01471013  RH  033%=      5-min Rain = 0
KST3 151756Z 21018KT 15/M01 A3025 RMK A01 T01471014  RH  033%=      5-min Rain = 0
KST3 151757Z 20019KT 15/M01 A3025 RMK A01 T01481013  RH  033%=      5-min Rain = 0
KST3 151758Z 20017KT 15/M02 A3025 RMK A01 T01491015  RH  032%=      5-min Rain = 0
KST3 151759Z 20017KT 15/M01 A3025 RMK A01 T01501013  RH  032%=      5-min Rain = 0
KST3 151800Z 21021KT 15/M02 A3025 RMK A01 T01511018  RH  031%=      5-min Rain = 0
KST3 151801Z 21018KT 15/M02 A3025 RMK A01 T01491019  RH  031%=      5-min Rain = 0
KST3 151802Z 21018G23KT 15/M02 A3025 RMK A01 T01501019  RH  031%=      5-min Rain = 0
KST3 151803Z 21019KT 15/M02 A3025 RMK A01 T01511019  RH  031%=      5-min Rain = 0
KST3 151804Z 22018G23KT 15/M02 A3025 RMK A01 T01501020  RH  031%=      5-min Rain = 0
KST3 151805Z 21021KT 15/M02 A3025 RMK A01 T01511020  RH  031%=      5-min Rain = 0
KST3 151806Z 21019KT 15/M02 A3025 RMK A01 T01521022  RH  030%=      5-min Rain = 0
KST3 151807Z 20019KT 15/M02 A3025 RMK A01 T01531024  RH  030%=      5-min Rain = 0
KST3 151808Z 20019KT 15/M03 A3024 RMK A01 T01531025  RH  029%=      5-min Rain = 0
KST3 151809Z 21020KT 15/M03 A3024 RMK A01 T01531025  RH  029%=      5-min Rain = 0
KST3 151810Z 22019G25KT 15/M02 A3024 RMK A01 T01531024  RH  030%=      5-min Rain = 0
KST3 151811Z 22020KT 16/M03 A3024 RMK A01 T01551026  RH  029%=      5-min Rain = 0
KST3 151812Z 22021KT 16/M03 A3024 RMK A01 T01561027  RH  028%=      5-min Rain = 0
KST3 151813Z 22018KT 16/M03 A3024 RMK A01 T01561027  RH  028%=      5-min Rain = 0
KST3 151814Z 22020KT 16/M03 A3024 RMK A01 T01571027  RH  028%=      5-min Rain = 0
KST3 151815Z 22017G22KT 16/M03 A3024 RMK A01 T01571027  RH  028%=      5-min Rain = 0
KST3 151816Z 22020G25KT 16/M03 A3024 RMK A01 T01601026  RH  028%=      5-min Rain = 0
KST3 151817Z 22023KT 16/M03 A3023 RMK A01 T01591030  RH  027%=      5-min Rain = 0
KST3 151818Z 22020G26KT 16/M03 A3024 RMK A01 T01561031  RH  027%=      5-min Rain = 0
KST3 151819Z 21024KT 16/M03 A3023 RMK A01 T01561030  RH  028%=      5-min Rain = 0
KST3 151820Z 21021KT 15/M03 A3023 RMK A01 T01541030  RH  028%=      5-min Rain = 0
KST3 151821Z 21017KT 15/M03 A3023 RMK A01 T01541028  RH  028%=      5-min Rain = 0
KST3 151822Z 21020KT 16/M03 A3023 RMK A01 T01551027  RH  028%=      5-min Rain = 0
KST3 151823Z 22021G27KT 16/M03 A3023 RMK A01 T01571026  RH  028%=      5-min Rain = 0
KST3 151824Z 21019G24KT 16/M03 A3023 RMK A01 T01581027  RH  028%=      5-min Rain = 0
KST3 151825Z 21017KT 16/M03 A3023 RMK A01 T01581028  RH  028%=      5-min Rain = 0
KST3 151826Z 21018KT 16/M03 A3023 RMK A01 T01571027  RH  028%=      5-min Rain = 0
KST3 151827Z 21019G24KT 16/M03 A3023 RMK A01 T01581027  RH  028%=      5-min Rain = 0
KST3 151828Z 21015KT 16/M03 A3023 RMK A01 T01601025  RH  028%=      5-min Rain = 0
KST3 151829Z 22015KT 16/M02 A3023 RMK A01 T01641023  RH  028%=      5-min Rain = 0
KST3 151830Z 21018KT 17/M03 A3022 RMK A01 T01661025  RH  027%=      5-min Rain = 0
KST3 151831Z 20019G24KT 17/M03 A3022 RMK A01 T01651026  RH  027%=      5-min Rain = 0
KST3 151832Z 20020G25KT 17/M03 A3022 RMK A01 T01651030  RH  026%=      5-min Rain = 0
KST3 151833Z 21020G25KT 16/M03 A3022 RMK A01 T01631031  RH  026%=      5-min Rain = 0
KST3 151834Z 22023G29KT 16/M03 A3022 RMK A01 T01631031  RH  026%=      5-min Rain = 0
KST3 151835Z 20023KT 16/M03 A3022 RMK A01 T01621032  RH  026%=      5-min Rain = 0
KST3 151836Z 21019G25KT 16/M03 A3022 RMK A01 T01621032  RH  026%=      5-min Rain = 0
KST3 151837Z 21023KT 16/M03 A3022 RMK A01 T01641031  RH  026%=      5-min Rain = 0
KST3 151838Z 21020KT 16/M03 A3022 RMK A01 T01641033  RH  026%=      5-min Rain = 0
KST3 151839Z 21020KT 16/M03 A3022 RMK A01 T01641032  RH  026%=      5-min Rain = 0
KST3 151840Z 21020KT 17/M03 A3022 RMK A01 T01651032  RH  026%=      5-min Rain = 0
KST3 151841Z 22021KT 17/M03 A3022 RMK A01 T01671032  RH  025%=      5-min Rain = 0
KST3 151842Z 21022KT 17/M03 A3022 RMK A01 T01671033  RH  025%=      5-min Rain = 0
KST3 151843Z 21020KT 17/M03 A3022 RMK A01 T01661034  RH  025%=      5-min Rain = 0
KST3 151844Z 21018G23KT 17/M03 A3022 RMK A01 T01671032  RH  025%=      5-min Rain = 0
KST3 151845Z 21022G27KT 17/M03 A3021 RMK A01 T01691033  RH  025%=      5-min Rain = 0
KST3 151846Z 22021G26KT 17/M03 A3021 RMK A01 T01681034  RH  025%=      5-min Rain = 0
KST3 151847Z 21021G26KT 17/M03 A3021 RMK A01 T01681033  RH  025%=      5-min Rain = 0
KST3 151848Z 21024G30KT 17/M03 A3021 RMK A01 T01671034  RH  025%=      5-min Rain = 0
KST3 151849Z 21022KT 17/M04 A3021 RMK A01 T01661035  RH  025%=      5-min Rain = 0
KST3 151850Z 21023KT 17/M04 A3021 RMK A01 T01661036  RH  025%=      5-min Rain = 0
KST3 151851Z 21021KT 17/M04 A3021 RMK A01 T01651037  RH  025%=      5-min Rain = 0
KST3 151852Z 22025KT 17/M04 A3021 RMK A01 T01661036  RH  025%=      5-min Rain = 0
KST3 151853Z 21024G29KT 17/M04 A3021 RMK A01 T01661036  RH  025%=      5-min Rain = 0
KST3 151854Z 21019KT 17/M04 A3021 RMK A01 T01661035  RH  025%=      5-min Rain = 0
KST3 151855Z 21023KT 17/M03 A3021 RMK A01 T01671034  RH  025%=      5-min Rain = 0
KST3 151856Z 21021G27KT 17/M04 A302 RMK A01 T01681035  RH  025%=      5-min Rain = 0
KST3 151857Z 21020G27KT 17/M03 A3021 RMK A01 T01681033  RH  025%=      5-min Rain = 0
KST3 151858Z 22020KT 17/M03 A3021 RMK A01 T01701032  RH  025%=      5-min Rain = 0
KST3 151859Z 22017KT 17/M03 A3021 RMK A01 T01711033  RH  025%=      5-min Rain = 0
KST3 151900Z 22019KT 17/M03 A302 RMK A01 T01721034  RH  024%=      5-min Rain = 0
KST3 151901Z 21017KT 17/M03 A3021 RMK A01 T01721032  RH  025%=      5-min Rain = 0
KST3 151902Z 20017G25KT 18/M03 A302 RMK A01 T01751031  RH  024%=      5-min Rain = 0
KST3 151903Z 21021G27KT 18/M04 A302 RMK A01 T01751036  RH  024%=      5-min Rain = 0
KST3 151904Z 21020KT 18/M03 A302 RMK A01 T01751034  RH  024%=      5-min Rain = 0
KST3 151905Z 21021KT 17/M04 A302 RMK A01 T01741036  RH  024%=      5-min Rain = 0
KST3 151906Z 21021KT 17/M04 A302 RMK A01 T01721037  RH  024%=      5-min Rain = 0
KST3 151907Z 21020KT 17/M04 A302 RMK A01 T01701036  RH  024%=      5-min Rain = 0
KST3 151908Z 22024KT 17/M04 A302 RMK A01 T01711036  RH  024%=      5-min Rain = 0
KST3 151909Z 22023G28KT 17/M04 A302 RMK A01 T01711038  RH  024%=      5-min Rain = 0
KST3 151910Z 22023KT 17/M04 A302 RMK A01 T01711038  RH  024%=      5-min Rain = 0
KST3 151911Z 22021KT 17/M04 A302 RMK A01 T01721037  RH  024%=      5-min Rain = 0
KST3 151912Z 22023KT 17/M04 A302 RMK A01 T01711038  RH  024%=      5-min Rain = 0
KST3 151913Z 22021KT 17/M04 A302 RMK A01 T01701038  RH  024%=      5-min Rain = 0
KST3 151914Z 21020KT 17/M04 A302 RMK A01 T01711035  RH  024%=      5-min Rain = 0
KST3 151915Z 22019G24KT 17/M03 A302 RMK A01 T01741034  RH  024%=      5-min Rain = 0
KST3 151916Z 21021KT 17/M04 A302 RMK A01 T01741035  RH  024%=      5-min Rain = 0
KST3 151917Z 20020G25KT 17/M04 A302 RMK A01 T01731037  RH  024%=      5-min Rain = 0
KST3 151918Z 20022KT 17/M04 A3019 RMK A01 T01731036  RH  024%=      5-min Rain = 0
KST3 151919Z 20022KT 17/M04 A3019 RMK A01 T01741036  RH  024%=      5-min Rain = 0
KST3 151920Z 21022KT 17/M04 A3019 RMK A01 T01731037  RH  024%=      5-min Rain = 0
KST3 151921Z 21022KT 17/M04 A3019 RMK A01 T01731036  RH  024%=      5-min Rain = 0
KST3 151922Z 21019KT 17/M04 A3019 RMK A01 T01731037  RH  024%=      5-min Rain = 0
KST3 151923Z 21023KT 17/M04 A3019 RMK A01 T01741037  RH  023%=      5-min Rain = 0
KST3 151924Z 21018KT 17/M04 A3019 RMK A01 T01741037  RH  023%=      5-min Rain = 0
KST3 151925Z 20019KT 17/M04 A3019 RMK A01 T01731036  RH  024%=      5-min Rain = 0
KST3 151926Z 21019G24KT 17/M04 A3019 RMK A01 T01741036  RH  024%=      5-min Rain = 0
KST3 151927Z 22022KT 18/M03 A3019 RMK A01 T01761034  RH  024%=      5-min Rain = 0
KST3 151928Z 22021KT 18/M04 A3019 RMK A01 T01761036  RH  023%=      5-min Rain = 0
KST3 151929Z 22021KT 17/M04 A3019 RMK A01 T01741036  RH  024%=      5-min Rain = 0
KST3 151930Z 22020KT 17/M04 A3019 RMK A01 T01741036  RH  024%=      5-min Rain = 0
KST3 151931Z 22019KT 18/M04 A3019 RMK A01 T01751035  RH  024%=      5-min Rain = 0
KST3 151932Z 22021KT 18/M04 A3019 RMK A01 T01761035  RH  023%=      5-min Rain = 0
KST3 151933Z 21021G27KT 18/M04 A3019 RMK A01 T01751036  RH  023%=      5-min Rain = 0
KST3 151934Z 21020KT 17/M04 A3019 RMK A01 T01741036  RH  024%=      5-min Rain = 0
KST3 151935Z 21018KT 18/M04 A3019 RMK A01 T01751035  RH  024%=      5-min Rain = 0
KST3 151936Z 21022KT 18/M04 A3018 RMK A01 T01771035  RH  023%=      5-min Rain = 0
KST3 151937Z 21019KT 18/M04 A3018 RMK A01 T01751038  RH  023%=      5-min Rain = 0
KST3 151938Z 20019KT 18/M04 A3018 RMK A01 T01751035  RH  024%=      5-min Rain = 0
KST3 151939Z 21018KT 18/M03 A3018 RMK A01 T01771034  RH  023%=      5-min Rain = 0
KST3 151940Z 22020KT 18/M03 A3018 RMK A01 T01781034  RH  023%=      5-min Rain = 0
KST3 151941Z 21019G24KT 18/M03 A3018 RMK A01 T01791033  RH  023%=      5-min Rain = 0
KST3 151942Z 21021G26KT 18/M03 A3018 RMK A01 T01801034  RH  023%=      5-min Rain = 0
KST3 151943Z 22019G24KT 18/M04 A3018 RMK A01 T01781036  RH  023%=      5-min Rain = 0
KST3 151944Z 21020G25KT 18/M04 A3018 RMK A01 T01781036  RH  023%=      5-min Rain = 0
KST3 151945Z 21019KT 18/M04 A3018 RMK A01 T01791035  RH  023%=      5-min Rain = 0
KST3 151946Z 22019KT 18/M04 A3017 RMK A01 T01801035  RH  023%=      5-min Rain = 0
KST3 151947Z 22021KT 18/M04 A3017 RMK A01 T01801036  RH  023%=      5-min Rain = 0
KST3 151948Z 21021KT 18/M04 A3017 RMK A01 T01791036  RH  023%=      5-min Rain = 0
KST3 151949Z 21021KT 18/M04 A3017 RMK A01 T01781036  RH  023%=      5-min Rain = 0
KST3 151950Z 21018KT 18/M04 A3017 RMK A01 T01781036  RH  023%=      5-min Rain = 0
KST3 151951Z 20019KT 18/M04 A3017 RMK A01 T01791036  RH  023%=      5-min Rain = 0
KST3 151952Z 22018G23KT 18/M04 A3017 RMK A01 T01801036  RH  023%=      5-min Rain = 0
KST3 151953Z 21024KT 18/M04 A3017 RMK A01 T01811035  RH  023%=      5-min Rain = 0
KST3 151954Z 21022KT 18/M04 A3017 RMK A01 T01821035  RH  023%=      5-min Rain = 0
KST3 151955Z 22022KT 18/M04 A3017 RMK A01 T01821037  RH  022%=      5-min Rain = 0
KST3 151956Z 21020G27KT 18/M04 A3017 RMK A01 T01801038  RH  023%=      5-min Rain = 0
KST3 151957Z 22020G26KT 18/M04 A3017 RMK A01 T01801036  RH  023%=      5-min Rain = 0
KST3 151958Z 22018KT 18/M04 A3017 RMK A01 T01821035  RH  023%=      5-min Rain = 0
KST3 151959Z 22022KT 18/M04 A3017 RMK A01 T01831035  RH  022%=      5-min Rain = 0
KST3 152000Z 22022KT 18/M04 A3017 RMK A01 T01811037  RH  022%=      5-min Rain = 0
KST3 152001Z 21021KT 18/M04 A3017 RMK A01 T01811036  RH  023%=      5-min Rain = 0
KST3 152002Z 21021KT 18/M04 A3016 RMK A01 T01801036  RH  023%=      5-min Rain = 0
KST3 152003Z 21022G28KT 18/M04 A3016 RMK A01 T01801035  RH  023%=      5-min Rain = 0
KST3 152004Z 20020KT 18/M04 A3016 RMK A01 T01781037  RH  023%=      5-min Rain = 0
KST3 152005Z 21020KT 18/M04 A3016 RMK A01 T01781036  RH  023%=      5-min Rain = 0
KST3 152006Z 20017KT 18/M04 A3016 RMK A01 T01791036  RH  023%=      5-min Rain = 0
KST3 152007Z 21017G22KT 18/M04 A3016 RMK A01 T01801035  RH  023%=      5-min Rain = 0
KST3 152008Z 21019KT 18/M03 A3016 RMK A01 T01821034  RH  023%=      5-min Rain = 0
KST3 152009Z 22019KT 18/M03 A3016 RMK A01 T01841034  RH  022%=      5-min Rain = 0
KST3 152010Z 22020KT 18/M04 A3016 RMK A01 T01841036  RH  022%=      5-min Rain = 0
KST3 152011Z 21020G25KT 18/M04 A3016 RMK A01 T01831037  RH  022%=      5-min Rain = 0
KST3 152012Z 20020KT 18/M04 A3016 RMK A01 T01821036  RH  022%=      5-min Rain = 0
KST3 152013Z 21016G23KT 18/M04 A3016 RMK A01 T01821035  RH  023%=      5-min Rain = 0
KST3 152014Z 21016KT 18/M04 A3016 RMK A01 T01841035  RH  022%=      5-min Rain = 0
KST3 152015Z 21017KT 19/M04 A3016 RMK A01 T01851036  RH  022%=      5-min Rain = 0
KST3 152016Z 22018KT 19/M04 A3016 RMK A01 T01851036  RH  022%=      5-min Rain = 0
KST3 152017Z 21019G24KT 18/M04 A3016 RMK A01 T01841037  RH  022%=      5-min Rain = 0
KST3 152018Z 21016G21KT 18/M04 A3016 RMK A01 T01831037  RH  022%=      5-min Rain = 0
KST3 152019Z 22018KT 18/M04 A3016 RMK A01 T01831037  RH  022%=      5-min Rain = 0
KST3 152020Z 21020KT 18/M04 A3016 RMK A01 T01841037  RH  022%=      5-min Rain = 0
KST3 152021Z 21020KT 18/M04 A3015 RMK A01 T01841038  RH  022%=      5-min Rain = 0
KST3 152022Z 20020KT 18/M04 A3015 RMK A01 T01831038  RH  022%=      5-min Rain = 0
KST3 152023Z 20020G25KT 18/M04 A3015 RMK A01 T01831037  RH  022%=      5-min Rain = 0
KST3 152024Z 20022KT 18/M04 A3015 RMK A01 T01841037  RH  022%=      5-min Rain = 0
KST3 152025Z 21021KT 18/M04 A3015 RMK A01 T01841039  RH  022%=      5-min Rain = 0
KST3 152026Z 20018G24KT 18/M04 A3015 RMK A01 T01831040  RH  022%=      5-min Rain = 0
KST3 152027Z 20018G23KT 18/M04 A3015 RMK A01 T01831039  RH  022%=      5-min Rain = 0
KST3 152028Z 21018KT 18/M04 A3015 RMK A01 T01831038  RH  022%=      5-min Rain = 0
KST3 152029Z 21021G26KT 18/M04 A3015 RMK A01 T01841037  RH  022%=      5-min Rain = 0
KST3 152030Z 21020G25KT 19/M04 A3015 RMK A01 T01851038  RH  022%=      5-min Rain = 0
KST3 152031Z 21017KT 18/M04 A3015 RMK A01 T01841040  RH  022%=      5-min Rain = 0
KST3 152032Z 22019G24KT 18/M04 A3015 RMK A01 T01841039  RH  022%=      5-min Rain = 0
KST3 152033Z 21017KT 19/M04 A3015 RMK A01 T01861038  RH  022%=      5-min Rain = 0
KST3 152034Z 21016G21KT 19/M04 A3015 RMK A01 T01871038  RH  021%=      5-min Rain = 0
KST3 152035Z 22018KT 19/M04 A3015 RMK A01 T01881036  RH  022%=      5-min Rain = 0
KST3 152036Z 21019KT 19/M04 A3015 RMK A01 T01891037  RH  021%=      5-min Rain = 0
KST3 152037Z 20019KT 19/M04 A3015 RMK A01 T01881038  RH  021%=      5-min Rain = 0
KST3 152038Z 20018G24KT 19/M04 A3015 RMK A01 T01861039  RH  021%=      5-min Rain = 0
KST3 152039Z 21021KT 19/M04 A3015 RMK A01 T01861038  RH  022%=      5-min Rain = 0
KST3 152040Z 21021KT 19/M04 A3015 RMK A01 T01861039  RH  021%=      5-min Rain = 0
KST3 152041Z 22018KT 19/M04 A3015 RMK A01 T01861038  RH  021%=      5-min Rain = 0
KST3 152042Z 22020KT 19/M04 A3015 RMK A01 T01861038  RH  022%=      5-min Rain = 0
KST3 152043Z 21017KT 19/M04 A3015 RMK A01 T01871037  RH  022%=      5-min Rain = 0
KST3 152044Z 21018KT 19/M04 A3015 RMK A01 T01871037  RH  022%=      5-min Rain = 0
KST3 152045Z 21020KT 19/M04 A3015 RMK A01 T01881036  RH  022%=      5-min Rain = 0
KST3 152046Z 22020KT 19/M04 A3015 RMK A01 T01871037  RH  022%=      5-min Rain = 0
KST3 152047Z 22017KT 19/M04 A3015 RMK A01 T01861037  RH  022%=      5-min Rain = 0
KST3 152048Z 21020KT 19/M04 A3015 RMK A01 T01861036  RH  022%=      5-min Rain = 0
KST3 152049Z 21020KT 19/M04 A3015 RMK A01 T01871036  RH  022%=      5-min Rain = 0
KST3 152050Z 22018KT 19/M04 A3015 RMK A01 T01861037  RH  022%=      5-min Rain = 0
KST3 152051Z 22018G23KT 19/M04 A3015 RMK A01 T01861036  RH  022%=      5-min Rain = 0
KST3 152052Z 21018G24KT 19/M04 A3015 RMK A01 T01871035  RH  022%=      5-min Rain = 0
KST3 152053Z 21020KT 19/M03 A3015 RMK A01 T01881034  RH  022%=      5-min Rain = 0
KST3 152054Z 21019G24KT 19/M04 A3015 RMK A01 T01881035  RH  022%=      5-min Rain = 0
KST3 152055Z 20020KT 19/M04 A3015 RMK A01 T01881035  RH  022%=      5-min Rain = 0
KST3 152056Z 21018G24KT 19/M04 A3015 RMK A01 T01871036  RH  022%=      5-min Rain = 0
KST3 152057Z 22019G24KT 19/M03 A3015 RMK A01 T01861034  RH  022%=      5-min Rain = 0
KST3 152058Z 22017KT 19/M03 A3015 RMK A01 T01871033  RH  022%=      5-min Rain = 0
KST3 152059Z 21022KT 19/M03 A3015 RMK A01 T01881033  RH  022%=      5-min Rain = 0
KST3 152100Z 20021KT 19/M04 A3015 RMK A01 T01871035  RH  022%=      5-min Rain = 0
KST3 152101Z 21017G22KT 19/M03 A3015 RMK A01 T01851034  RH  022%=      5-min Rain = 0
KST3 152102Z 21021KT 19/M03 A3015 RMK A01 T01851034  RH  022%=      5-min Rain = 0
KST3 152103Z 20020KT 19/M03 A3014 RMK A01 T01851033  RH  022%=      5-min Rain = 0
KST3 152104Z 20020KT 19/M03 A3015 RMK A01 T01861034  RH  022%=      5-min Rain = 0
KST3 152105Z 20018KT 19/M03 A3015 RMK A01 T01861034  RH  022%=      5-min Rain = 0
KST3 152106Z 20019KT 19/M03 A3015 RMK A01 T01861033  RH  022%=      5-min Rain = 0
KST3 152107Z 21021KT 19/M03 A3014 RMK A01 T01871033  RH  022%=      5-min Rain = 0
KST3 152108Z 21017G23KT 19/M03 A3014 RMK A01 T01861032  RH  023%=      5-min Rain = 0
KST3 152109Z 21019KT 19/M03 A3014 RMK A01 T01881029  RH  023%=      5-min Rain = 0
KST3 152110Z 21017KT 19/M03 A3014 RMK A01 T01891030  RH  022%=      5-min Rain = 0
KST3 152111Z 21020KT 19/M03 A3014 RMK A01 T01871031  RH  022%=      5-min Rain = 0
KST3 152112Z 20017KT 19/M03 A3015 RMK A01 T01861032  RH  023%=      5-min Rain = 0
KST3 152113Z 21015KT 19/M03 A3014 RMK A01 T01871029  RH  023%=      5-min Rain = 0
KST3 152114Z 21017KT 19/M03 A3014 RMK A01 T01891029  RH  023%=      5-min Rain = 0
KST3 152115Z 21017KT 19/M03 A3014 RMK A01 T01891030  RH  022%=      5-min Rain = 0
KST3 152116Z 21017KT 19/M03 A3014 RMK A01 T01891032  RH  022%=      5-min Rain = 0
KST3 152117Z 21017KT 19/M03 A3014 RMK A01 T01881032  RH  022%=      5-min Rain = 0
KST3 152118Z 19019KT 19/M03 A3014 RMK A01 T01881032  RH  022%=      5-min Rain = 0
KST3 152119Z 21020G25KT 19/M03 A3014 RMK A01 T01861033  RH  022%=      5-min Rain = 0
KST3 152120Z 22020KT 18/M03 A3014 RMK A01 T01841033  RH  023%=      5-min Rain = 0
KST3 152121Z 21018KT 18/M03 A3014 RMK A01 T01831032  RH  023%=      5-min Rain = 0
KST3 152122Z 22017KT 18/M03 A3014 RMK A01 T01821032  RH  023%=      5-min Rain = 0
KST3 152123Z 22017KT 18/M03 A3014 RMK A01 T01811032  RH  023%=      5-min Rain = 0
KST3 152124Z 22014KT 18/M03 A3014 RMK A01 T01811032  RH  023%=      5-min Rain = 0
KST3 152125Z 22016KT 18/M03 A3014 RMK A01 T01831030  RH  023%=      5-min Rain = 0
KST3 152126Z 21015KT 19/M03 A3014 RMK A01 T01851030  RH  023%=      5-min Rain = 0
KST3 152127Z 21015KT 19/M03 A3014 RMK A01 T01861030  RH  023%=      5-min Rain = 0
KST3 152128Z 21015KT 19/M03 A3014 RMK A01 T01871031  RH  023%=      5-min Rain = 0
KST3 152129Z 22015G20KT 19/M03 A3014 RMK A01 T01871031  RH  023%=      5-min Rain = 0
KST3 152130Z 22015KT 19/M03 A3014 RMK A01 T01871030  RH  023%=      5-min Rain = 0
KST3 152131Z 22019KT 19/M03 A3014 RMK A01 T01871031  RH  023%=      5-min Rain = 0
KST3 152132Z 21015G20KT 19/M03 A3014 RMK A01 T01861031  RH  023%=      5-min Rain = 0
KST3 152133Z 22016KT 19/M03 A3014 RMK A01 T01861031  RH  023%=      5-min Rain = 0
KST3 152134Z 22017KT 19/M03 A3014 RMK A01 T01861032  RH  023%=      5-min Rain = 0
KST3 152135Z 21018KT 19/M03 A3014 RMK A01 T01861032  RH  023%=      5-min Rain = 0
KST3 152136Z 21018KT 19/M03 A3014 RMK A01 T01851033  RH  023%=      5-min Rain = 0
KST3 152137Z 21014KT 18/M03 A3014 RMK A01 T01841032  RH  023%=      5-min Rain = 0
KST3 152138Z 21015KT 18/M03 A3014 RMK A01 T01841032  RH  023%=      5-min Rain = 0
KST3 152139Z 21016KT 18/M03 A3014 RMK A01 T01841032  RH  023%=      5-min Rain = 0
KST3 152140Z 22016KT 18/M03 A3014 RMK A01 T01841032  RH  023%=      5-min Rain = 0
KST3 152141Z 21015KT 18/M03 A3014 RMK A01 T01841033  RH  023%=      5-min Rain = 0
KST3 152142Z 21016KT 18/M03 A3014 RMK A01 T01831032  RH  023%=      5-min Rain = 0
KST3 152143Z 21017KT 18/M03 A3014 RMK A01 T01831033  RH  023%=      5-min Rain = 0
KST3 152144Z 21015KT 18/M03 A3014 RMK A01 T01831033  RH  023%=      5-min Rain = 0
KST3 152145Z 21013KT 18/M03 A3014 RMK A01 T01841032  RH  023%=      5-min Rain = 0
KST3 152146Z 21012KT 19/M03 A3014 RMK A01 T01851031  RH  023%=      5-min Rain = 0
KST3 152147Z 22016KT 19/M03 A3014 RMK A01 T01861032  RH  022%=      5-min Rain = 0
KST3 152148Z 21016KT 19/M03 A3014 RMK A01 T01861034  RH  022%=      5-min Rain = 0
KST3 152149Z 20014KT 19/M04 A3014 RMK A01 T01851035  RH  022%=      5-min Rain = 0
KST3 152150Z 21013KT 19/M03 A3014 RMK A01 T01851034  RH  022%=      5-min Rain = 0
KST3 152151Z 20012KT 19/M03 A3014 RMK A01 T01861032  RH  022%=      5-min Rain = 0
KST3 152152Z 21014KT 19/M03 A3014 RMK A01 T01871032  RH  022%=      5-min Rain = 0
KST3 152153Z 21010KT 19/M03 A3014 RMK A01 T01861033  RH  022%=      5-min Rain = 0
KST3 152154Z 20016KT 19/M03 A3014 RMK A01 T01851032  RH  023%=      5-min Rain = 0
KST3 152155Z 21014KT 18/M03 A3014 RMK A01 T01841034  RH  022%=      5-min Rain = 0
KST3 152156Z 21012KT 18/M03 A3014 RMK A01 T01841033  RH  023%=      5-min Rain = 0
KST3 152157Z 21013KT 18/M03 A3013 RMK A01 T01831032  RH  023%=      5-min Rain = 0
KST3 152158Z 21017KT 18/M04 A3013 RMK A01 T01821035  RH  023%=      5-min Rain = 0
KST3 152159Z 21017KT 18/M04 A3013 RMK A01 T01811035  RH  023%=      5-min Rain = 0
KST3 152200Z 21017KT 18/M04 A3013 RMK A01 T01811036  RH  023%=      5-min Rain = 0
KST3 152201Z 21018KT 18/M04 A3013 RMK A01 T01811036  RH  023%=      5-min Rain = 0
KST3 152202Z 21017KT 18/M04 A3013 RMK A01 T01811035  RH  023%=      5-min Rain = 0
KST3 152203Z 21016KT 18/M04 A3013 RMK A01 T01821036  RH  023%=      5-min Rain = 0
KST3 152204Z 21016KT 18/M04 A3013 RMK A01 T01821036  RH  022%=      5-min Rain = 0
KST3 152205Z 21017KT 18/M04 A3013 RMK A01 T01821036  RH  022%=      5-min Rain = 0
KST3 152206Z 21014KT 18/M04 A3013 RMK A01 T01811038  RH  022%=      5-min Rain = 0
KST3 152207Z 21014KT 18/M04 A3013 RMK A01 T01801037  RH  023%=      5-min Rain = 0
KST3 152208Z 21012G18KT 18/M04 A3013 RMK A01 T01801037  RH  023%=      5-min Rain = 0
KST3 152209Z 20016G21KT 18/M04 A3013 RMK A01 T01801037  RH  023%=      5-min Rain = 0
KST3 152210Z 20014G20KT 18/M04 A3013 RMK A01 T01801037  RH  023%=      5-min Rain = 0
KST3 152211Z 21016KT 18/M04 A3013 RMK A01 T01801037  RH  023%=      5-min Rain = 0
KST3 152212Z 20014KT 18/M04 A3013 RMK A01 T01801037  RH  023%=      5-min Rain = 0
KST3 152213Z 20015KT 18/M04 A3013 RMK A01 T01811037  RH  022%=      5-min Rain = 0
KST3 152214Z 20014KT 18/M04 A3013 RMK A01 T01811038  RH  022%=      5-min Rain = 0
KST3 152215Z 21012KT 18/M04 A3013 RMK A01 T01821036  RH  022%=      5-min Rain = 0
KST3 152216Z 21011KT 18/M04 A3013 RMK A01 T01821035  RH  023%=      5-min Rain = 0
KST3 152217Z 21012KT 18/M03 A3013 RMK A01 T01821034  RH  023%=      5-min Rain = 0
KST3 152218Z 20011KT 18/M03 A3013 RMK A01 T01821033  RH  023%=      5-min Rain = 0
KST3 152219Z 20012G17KT 18/M03 A3013 RMK A01 T01821034  RH  023%=      5-min Rain = 0
KST3 152220Z 20012KT 18/M04 A3013 RMK A01 T01821036  RH  022%=      5-min Rain = 0
KST3 152221Z 20015KT 18/M04 A3013 RMK A01 T01821036  RH  022%=      5-min Rain = 0
KST3 152222Z 20015KT 18/M04 A3013 RMK A01 T01811039  RH  022%=      5-min Rain = 0
KST3 152223Z 20012KT 18/M04 A3013 RMK A01 T01811039  RH  022%=      5-min Rain = 0
KST3 152224Z 20014KT 18/M04 A3013 RMK A01 T01811038  RH  022%=      5-min Rain = 0
KST3 152225Z 20011KT 18/M04 A3013 RMK A01 T01811039  RH  022%=      5-min Rain = 0
KST3 152226Z 19010KT 18/M04 A3013 RMK A01 T01811038  RH  022%=      5-min Rain = 0
KST3 152227Z 20011KT 18/M04 A3013 RMK A01 T01811037  RH  022%=      5-min Rain = 0
KST3 152228Z 20012KT 18/M04 A3013 RMK A01 T01811038  RH  022%=      5-min Rain = 0
KST3 152229Z 20011KT 18/M04 A3013 RMK A01 T01801038  RH  022%=      5-min Rain = 0
KST3 152230Z 20013KT 18/M04 A3013 RMK A01 T01811038  RH  022%=      5-min Rain = 0
KST3 152231Z 20014KT 18/M04 A3013 RMK A01 T01801039  RH  022%=      5-min Rain = 0
KST3 152232Z 20013KT 18/M04 A3013 RMK A01 T01801039  RH  022%=      5-min Rain = 0
KST3 152233Z 20012KT 18/M04 A3013 RMK A01 T01811038  RH  022%=      5-min Rain = 0
KST3 152234Z 20013KT 18/M04 A3013 RMK A01 T01811038  RH  022%=      5-min Rain = 0
KST3 152235Z 20013KT 18/M04 A3013 RMK A01 T01811039  RH  022%=      5-min Rain = 0
KST3 152236Z 20013KT 18/M04 A3013 RMK A01 T01811040  RH  022%=      5-min Rain = 0
KST3 152237Z 20011KT 18/M04 A3013 RMK A01 T01821040  RH  022%=      5-min Rain = 0
KST3 152238Z 20011KT 18/M04 A3013 RMK A01 T01821040  RH  022%=      5-min Rain = 0
KST3 152239Z 20012KT 18/M04 A3013 RMK A01 T01811039  RH  022%=      5-min Rain = 0
KST3 152240Z 19013KT 18/M04 A3013 RMK A01 T01821039  RH  022%=      5-min Rain = 0
KST3 152241Z 20013KT 18/M04 A3013 RMK A01 T01811040  RH  022%=      5-min Rain = 0
KST3 152242Z 20017KT 18/M04 A3013 RMK A01 T01821040  RH  022%=      5-min Rain = 0
KST3 152243Z 20017KT 18/M04 A3013 RMK A01 T01821040  RH  022%=      5-min Rain = 0
KST3 152244Z 20015KT 18/M04 A3013 RMK A01 T01821042  RH  022%=      5-min Rain = 0
KST3 152245Z 20018KT 18/M04 A3013 RMK A01 T01811042  RH  022%=      5-min Rain = 0
KST3 152246Z 20014KT 18/M04 A3013 RMK A01 T01811042  RH  022%=      5-min Rain = 0
KST3 152247Z 20015KT 18/M04 A3013 RMK A01 T01791042  RH  022%=      5-min Rain = 0
KST3 152248Z 19015KT 18/M04 A3013 RMK A01 T01791043  RH  022%=      5-min Rain = 0
KST3 152249Z 19015KT 18/M04 A3013 RMK A01 T01791043  RH  022%=      5-min Rain = 0
KST3 152250Z 19015KT 18/M04 A3013 RMK A01 T01791043  RH  022%=      5-min Rain = 0
KST3 152251Z 20016KT 18/M04 A3013 RMK A01 T01791043  RH  022%=      5-min Rain = 0
KST3 152252Z 20017KT 18/M04 A3013 RMK A01 T01791044  RH  022%=      5-min Rain = 0
KST3 152253Z 20015KT 18/M04 A3013 RMK A01 T01791044  RH  022%=      5-min Rain = 0
KST3 152254Z 20014KT 18/M04 A3013 RMK A01 T01791043  RH  022%=      5-min Rain = 0
KST3 152255Z 20014KT 18/M04 A3013 RMK A01 T01781043  RH  022%=      5-min Rain = 0
KST3 152256Z 20012KT 18/M04 A3013 RMK A01 T01771043  RH  022%=      5-min Rain = 0
KST3 152257Z 20017G22KT 18/M04 A3013 RMK A01 T01761043  RH  022%=      5-min Rain = 0
KST3 152258Z 20016KT 18/M04 A3013 RMK A01 T01771044  RH  022%=      5-min Rain = 0
KST3 152259Z 20015KT 18/M04 A3013 RMK A01 T01771044  RH  022%=      5-min Rain = 0
KST3 152300Z 20014KT 18/M04 A3013 RMK A01 T01761044  RH  022%=      5-min Rain = 0
KST3 152301Z 20012KT 18/M04 A3013 RMK A01 T01761043  RH  022%=      5-min Rain = 0
KST3 152302Z 20012G18KT 18/M04 A3013 RMK A01 T01751043  RH  022%=      5-min Rain = 0
KST3 152303Z 19012KT 18/M04 A3013 RMK A01 T01751043  RH  022%=      5-min Rain = 0
KST3 152304Z 20011KT 17/M04 A3013 RMK A01 T01741043  RH  022%=      5-min Rain = 0
KST3 152305Z 19014KT 17/M04 A3013 RMK A01 T01741043  RH  022%=      5-min Rain = 0
KST3 152306Z 20013KT 17/M04 A3013 RMK A01 T01741043  RH  022%=      5-min Rain = 0
KST3 152307Z 20014KT 17/M04 A3013 RMK A01 T01731044  RH  022%=      5-min Rain = 0
KST3 152308Z 19012KT 17/M04 A3013 RMK A01 T01731044  RH  022%=      5-min Rain = 0
KST3 152309Z 20011KT 17/M04 A3013 RMK A01 T01721044  RH  022%=      5-min Rain = 0
KST3 152310Z 19013KT 17/M04 A3013 RMK A01 T01711044  RH  023%=      5-min Rain = 0
KST3 152311Z 19013KT 17/M04 A3013 RMK A01 T01701044  RH  023%=      5-min Rain = 0
KST3 152312Z 20017KT 17/M04 A3013 RMK A01 T01691044  RH  023%=      5-min Rain = 0
KST3 152313Z 19015G20KT 17/M05 A3013 RMK A01 T01691045  RH  023%=      5-min Rain = 0
KST3 152314Z 20016KT 17/M05 A3012 RMK A01 T01701045  RH  023%=      5-min Rain = 0
KST3 152315Z 19014KT 17/M05 A3013 RMK A01 T01691046  RH  023%=      5-min Rain = 0
KST3 152316Z 20015KT 17/M05 A3013 RMK A01 T01691046  RH  023%=      5-min Rain = 0
KST3 152317Z 20014KT 17/M05 A3013 RMK A01 T01691046  RH  023%=      5-min Rain = 0
KST3 152318Z 20015KT 17/M05 A3013 RMK A01 T01671047  RH  023%=      5-min Rain = 0
KST3 152319Z 20014KT 17/M05 A3013 RMK A01 T01671046  RH  023%=      5-min Rain = 0
KST3 152320Z 20013KT 17/M05 A3013 RMK A01 T01661046  RH  023%=      5-min Rain = 0
KST3 152321Z 20012KT 17/M05 A3013 RMK A01 T01651047  RH  023%=      5-min Rain = 0
KST3 152322Z 20012KT 17/M05 A3013 RMK A01 T01651046  RH  023%=      5-min Rain = 0
KST3 152323Z 19014KT 16/M05 A3013 RMK A01 T01631047  RH  023%=      5-min Rain = 0
KST3 152324Z 19011KT 16/M05 A3013 RMK A01 T01631047  RH  023%=      5-min Rain = 0
KST3 152325Z 19011KT 16/M05 A3013 RMK A01 T01621047  RH  024%=      5-min Rain = 0
KST3 152326Z 19010KT 16/M05 A3013 RMK A01 T01601046  RH  024%=      5-min Rain = 0
KST3 152327Z 19011KT 16/M05 A3013 RMK A01 T01591046  RH  024%=      5-min Rain = 0
KST3 152328Z 19010KT 16/M05 A3013 RMK A01 T01581045  RH  024%=      5-min Rain = 0
KST3 152329Z 19011KT 16/M05 A3013 RMK A01 T01561045  RH  025%=      5-min Rain = 0
KST3 152330Z 19011KT 16/M04 A3013 RMK A01 T01551044  RH  025%=      5-min Rain = 0
KST3 152331Z 19011KT 16/M04 A3013 RMK A01 T01551044  RH  025%=      5-min Rain = 0
KST3 152332Z 19010KT 16/M04 A3013 RMK A01 T01551043  RH  025%=      5-min Rain = 0
KST3 152333Z 19011KT 15/M04 A3013 RMK A01 T01541043  RH  025%=      5-min Rain = 0
KST3 152334Z 19010KT 15/M04 A3013 RMK A01 T01541042  RH  026%=      5-min Rain = 0
KST3 152335Z 18011KT 15/M04 A3013 RMK A01 T01531042  RH  026%=      5-min Rain = 0
KST3 152336Z 19010KT 15/M04 A3013 RMK A01 T01531041  RH  026%=      5-min Rain = 0
KST3 152337Z 18011KT 15/M04 A3013 RMK A01 T01521041  RH  026%=      5-min Rain = 0
KST3 152338Z 19011KT 15/M04 A3013 RMK A01 T01511041  RH  026%=      5-min Rain = 0
KST3 152339Z 19011KT 15/M04 A3013 RMK A01 T01511041  RH  026%=      5-min Rain = 0
KST3 152340Z 18010KT 15/M04 A3013 RMK A01 T01511040  RH  027%=      5-min Rain = 0
KST3 152341Z 19012KT 15/M04 A3013 RMK A01 T01501040  RH  027%=      5-min Rain = 0
KST3 152342Z 18012KT 15/M04 A3013 RMK A01 T01501040  RH  027%=      5-min Rain = 0
KST3 152343Z 19011KT 15/M04 A3013 RMK A01 T01511039  RH  027%=      5-min Rain = 0
KST3 152344Z 19011KT 15/M04 A3013 RMK A01 T01511039  RH  027%=      5-min Rain = 0
KST3 152345Z 19011KT 15/M04 A3013 RMK A01 T01501039  RH  027%=      5-min Rain = 0
KST3 152346Z 19010KT 15/M04 A3013 RMK A01 T01491039  RH  027%=      5-min Rain = 0
KST3 152347Z 18011KT 15/M04 A3013 RMK A01 T01481039  RH  027%=      5-min Rain = 0
KST3 152348Z 18011KT 15/M04 A3013 RMK A01 T01471038  RH  028%=      5-min Rain = 0
KST3 152349Z 18012KT 15/M04 A3013 RMK A01 T01471038  RH  028%=      5-min Rain = 0
KST3 152350Z 18010KT 15/M04 A3013 RMK A01 T01471038  RH  028%=      5-min Rain = 0
KST3 152351Z 18010KT 15/M04 A3013 RMK A01 T01451038  RH  028%=      5-min Rain = 0
KST3 152352Z 18010KT 14/M04 A3013 RMK A01 T01441038  RH  028%=      5-min Rain = 0
KST3 152353Z 18011KT 14/M04 A3013 RMK A01 T01441038  RH  028%=      5-min Rain = 0
KST3 152354Z 18011KT 14/M04 A3013 RMK A01 T01431037  RH  029%=      5-min Rain = 0
KST3 152355Z 18011KT 14/M04 A3013 RMK A01 T01421037  RH  029%=      5-min Rain = 0
KST3 152356Z 18012KT 14/M04 A3013 RMK A01 T01431036  RH  029%=      5-min Rain = 0
KST3 152357Z 18011KT 14/M04 A3013 RMK A01 T01431036  RH  029%=      5-min Rain = 0
KST3 152358Z 18010KT 14/M04 A3013 RMK A01 T01421036  RH  029%=      5-min Rain = 0
KST3 152359Z 18012KT 14/M04 A3013 RMK A01 T01421036  RH  029%=      5-min Rain = 0
KST3 160000Z 18011KT 14/M04 A3013 RMK A01 T01411035  RH  029%=      5-min Rain = 0
KST3 160001Z 18012KT 14/M04 A3013 RMK A01 T01411035  RH  029%=      5-min Rain = 0
KST3 160002Z 18011KT 14/M04 A3013 RMK A01 T01411035  RH  029%=      5-min Rain = 0
KST3 160003Z 18012KT 14/M04 A3013 RMK A01 T01401035  RH  029%=      5-min Rain = 0
KST3 160004Z 18011KT 14/M04 A3013 RMK A01 T01401035  RH  030%=      5-min Rain = 0
KST3 160005Z 19011KT 14/M04 A3013 RMK A01 T01401035  RH  030%=      5-min Rain = 0
KST3 160006Z 18011KT 14/M04 A3013 RMK A01 T01401035  RH  030%=      5-min Rain = 0
KST3 160007Z 18010KT 14/M04 A3013 RMK A01 T01391035  RH  030%=      5-min Rain = 0
KST3 160008Z 18013KT 14/M04 A3013 RMK A01 T01381035  RH  030%=      5-min Rain = 0
KST3 160009Z 18013KT 14/M04 A3013 RMK A01 T01381035  RH  030%=      5-min Rain = 0
KST3 160010Z 18013KT 14/M04 A3013 RMK A01 T01391035  RH  030%=      5-min Rain = 0
KST3 160011Z 18013KT 14/M04 A3013 RMK A01 T01391035  RH  030%=      5-min Rain = 0
KST3 160012Z 18012KT 14/M03 A3013 RMK A01 T01391034  RH  030%=      5-min Rain = 0
KST3 160013Z 18013KT 14/M04 A3013 RMK A01 T01381035  RH  030%=      5-min Rain = 0
KST3 160014Z 19012KT 14/M03 A3013 RMK A01 T01381034  RH  030%=      5-min Rain = 0
KST3 160015Z 18012KT 14/M03 A3013 RMK A01 T01381034  RH  030%=      5-min Rain = 0
KST3 160016Z 18012KT 14/M03 A3013 RMK A01 T01381034  RH  030%=      5-min Rain = 0
KST3 160017Z 18013KT 14/M03 A3013 RMK A01 T01371034  RH  030%=      5-min Rain = 0
KST3 160018Z 18013KT 14/M03 A3013 RMK A01 T01371034  RH  030%=      5-min Rain = 0
KST3 160019Z 18012KT 14/M03 A3013 RMK A01 T01371034  RH  030%=      5-min Rain = 0
KST3 160020Z 18013KT 14/M03 A3013 RMK A01 T01371034  RH  030%=      5-min Rain = 0
KST3 160021Z 19014KT 14/M04 A3013 RMK A01 T01361035  RH  030%=      5-min Rain = 0
KST3 160022Z 18013KT 14/M03 A3013 RMK A01 T01361034  RH  031%=      5-min Rain = 0
KST3 160023Z 18013KT 14/M03 A3013 RMK A01 T01361034  RH  030%=      5-min Rain = 0
KST3 160024Z 18012KT 14/M03 A3013 RMK A01 T01361034  RH  031%=      5-min Rain = 0
KST3 160025Z 18013KT 14/M04 A3013 RMK A01 T01351035  RH  031%=      5-min Rain = 0
KST3 160026Z 19012KT 13/M03 A3013 RMK A01 T01341034  RH  031%=      5-min Rain = 0
KST3 160027Z 18013KT 13/M03 A3013 RMK A01 T01341034  RH  031%=      5-min Rain = 0
KST3 160028Z 19013KT 13/M03 A3013 RMK A01 T01341034  RH  031%=      5-min Rain = 0
KST3 160029Z 19012KT 13/M03 A3013 RMK A01 T01341034  RH  031%=      5-min Rain = 0
KST3 160030Z 19013KT 13/M03 A3013 RMK A01 T01331034  RH  031%=      5-min Rain = 0
KST3 160031Z 18013KT 13/M03 A3013 RMK A01 T01321034  RH  031%=      5-min Rain = 0
KST3 160032Z 18012KT 13/M03 A3013 RMK A01 T01331034  RH  031%=      5-min Rain = 0
KST3 160033Z 18011KT 13/M03 A3013 RMK A01 T01321034  RH  031%=      5-min Rain = 0
KST3 160034Z 19012KT 13/M03 A3013 RMK A01 T01311034  RH  032%=      5-min Rain = 0
KST3 160035Z 19013KT 13/M03 A3013 RMK A01 T01311034  RH  032%=      5-min Rain = 0
KST3 160036Z 19013KT 13/M03 A3013 RMK A01 T01311034  RH  032%=      5-min Rain = 0
KST3 160037Z 19013KT 13/M03 A3013 RMK A01 T01311034  RH  032%=      5-min Rain = 0
KST3 160038Z 18011KT 13/M03 A3013 RMK A01 T01301034  RH  032%=      5-min Rain = 0
KST3 160039Z 19011KT 13/M03 A3014 RMK A01 T01291034  RH  032%=      5-min Rain = 0
KST3 160040Z 19012KT 13/M04 A3013 RMK A01 T01271035  RH  032%=      5-min Rain = 0
KST3 160041Z 19011KT 13/M03 A3014 RMK A01 T01281034  RH  032%=      5-min Rain = 0
KST3 160042Z 19010KT 13/M03 A3014 RMK A01 T01271034  RH  032%=      5-min Rain = 0
KST3 160043Z 19011KT 13/M03 A3014 RMK A01 T01261034  RH  033%=      5-min Rain = 0
KST3 160044Z 19012KT 13/M03 A3014 RMK A01 T01261034  RH  033%=      5-min Rain = 0
KST3 160045Z 18012KT 13/M03 A3014 RMK A01 T01261034  RH  033%=      5-min Rain = 0
KST3 160046Z 19011KT 13/M03 A3014 RMK A01 T01271034  RH  033%=      5-min Rain = 0
KST3 160047Z 19012KT 13/M03 A3014 RMK A01 T01271034  RH  033%=      5-min Rain = 0
KST3 160048Z 19012KT 13/M03 A3014 RMK A01 T01271034  RH  033%=      5-min Rain = 0
KST3 160049Z 19011G16KT 13/M03 A3014 RMK A01 T01261034  RH  033%=      5-min Rain = 0
KST3 160050Z 19012KT 13/M03 A3014 RMK A01 T01261034  RH  033%=      5-min Rain = 0
KST3 160051Z 19011KT 13/M03 A3014 RMK A01 T01261034  RH  033%=      5-min Rain = 0
KST3 160052Z 19012KT 13/M03 A3014 RMK A01 T01251034  RH  033%=      5-min Rain = 0
KST3 160053Z 19010KT 13/M03 A3014 RMK A01 T01251034  RH  033%=      5-min Rain = 0
KST3 160054Z 19011KT 12/M03 A3014 RMK A01 T01241034  RH  033%=      5-min Rain = 0
KST3 160055Z 19011KT 12/M03 A3014 RMK A01 T01241034  RH  033%=      5-min Rain = 0
KST3 160056Z 19011KT 12/M04 A3014 RMK A01 T01231035  RH  033%=      5-min Rain = 0
KST3 160057Z 19010KT 12/M03 A3014 RMK A01 T01231034  RH  033%=      5-min Rain = 0
KST3 160058Z 19011KT 12/M04 A3014 RMK A01 T01211035  RH  033%=      5-min Rain = 0
KST3 160059Z 19011KT 12/M04 A3014 RMK A01 T01201035  RH  034%=      5-min Rain = 0
KST3 160100Z 19011KT 12/M03 A3014 RMK A01 T01201034  RH  034%=      5-min Rain = 0
KST3 160101Z 19011KT 12/M03 A3014 RMK A01 T01201034  RH  034%=      5-min Rain = 0
KST3 160102Z 19011KT 12/M03 A3014 RMK A01 T01201034  RH  034%=      5-min Rain = 0
KST3 160103Z 19011KT 12/M04 A3014 RMK A01 T01201035  RH  034%=      5-min Rain = 0
KST3 160104Z 19011KT 12/M04 A3014 RMK A01 T01201035  RH  034%=      5-min Rain = 0
KST3 160105Z 19011KT 12/M04 A3014 RMK A01 T01201035  RH  034%=      5-min Rain = 0
KST3 160106Z 18011KT 12/M04 A3014 RMK A01 T01201035  RH  034%=      5-min Rain = 0
KST3 160107Z 19011KT 12/M03 A3014 RMK A01 T01201034  RH  034%=      5-min Rain = 0
KST3 160108Z 19011KT 12/M04 A3014 RMK A01 T01191035  RH  034%=      5-min Rain = 0
KST3 160109Z 19011KT 12/M04 A3014 RMK A01 T01191035  RH  034%=      5-min Rain = 0
KST3 160110Z 19011KT 12/M03 A3014 RMK A01 T01181034  RH  034%=      5-min Rain = 0
KST3 160111Z 18010KT 12/M04 A3014 RMK A01 T01181035  RH  034%=      5-min Rain = 0
KST3 160112Z 18009KT 12/M04 A3014 RMK A01 T01181035  RH  034%=      5-min Rain = 0
KST3 160113Z 18010KT 12/M04 A3014 RMK A01 T01181035  RH  034%=      5-min Rain = 0
KST3 160114Z 18009KT 12/M04 A3014 RMK A01 T01161035  RH  035%=      5-min Rain = 0
KST3 160115Z 18010KT 12/M04 A3014 RMK A01 T01151035  RH  035%=      5-min Rain = 0
KST3 160116Z 18009KT 11/M04 A3014 RMK A01 T01141035  RH  035%=      5-min Rain = 0
KST3 160117Z 18009KT 11/M04 A3014 RMK A01 T01131035  RH  035%=      5-min Rain = 0
KST3 160118Z 18009KT 11/M04 A3014 RMK A01 T01121035  RH  036%=      5-min Rain = 0
KST3 160119Z 18010KT 11/M03 A3014 RMK A01 T01121034  RH  036%=      5-min Rain = 0
KST3 160120Z 18009KT 11/M03 A3014 RMK A01 T01111034  RH  036%=      5-min Rain = 0
KST3 160121Z 19009KT 11/M04 A3014 RMK A01 T01101035  RH  036%=      5-min Rain = 0
KST3 160122Z 18009KT 11/M04 A3014 RMK A01 T01091035  RH  036%=      5-min Rain = 0
KST3 160123Z 18009KT 11/M03 A3014 RMK A01 T01091034  RH  036%=      5-min Rain = 0
KST3 160124Z 19009KT 11/M03 A3014 RMK A01 T01091034  RH  036%=      5-min Rain = 0
KST3 160125Z 19008KT 11/M03 A3014 RMK A01 T01091034  RH  037%=      5-min Rain = 0
KST3 160126Z 19008KT 11/M03 A3014 RMK A01 T01081034  RH  037%=      5-min Rain = 0
KST3 160127Z 19009KT 11/M03 A3014 RMK A01 T01071034  RH  037%=      5-min Rain = 0
KST3 160128Z 19009KT 11/M03 A3014 RMK A01 T01071034  RH  037%=      5-min Rain = 0
KST3 160129Z 19008KT 11/M03 A3014 RMK A01 T01071034  RH  037%=      5-min Rain = 0
KST3 160130Z 19008KT 11/M03 A3014 RMK A01 T01061034  RH  037%=      5-min Rain = 0
KST3 160131Z 19008KT 10/M04 A3014 RMK A01 T01041035  RH  038%=      5-min Rain = 0
KST3 160132Z 19008KT 10/M04 A3014 RMK A01 T01021035  RH  038%=      5-min Rain = 0
KST3 160133Z 20008KT 10/M04 A3015 RMK A01 T01011035  RH  038%=      5-min Rain = 0
KST3 160134Z 20009KT 10/M04 A3015 RMK A01 T00971037  RH  039%=      5-min Rain = 0
KST3 160135Z 20009KT 09/M04 A3014 RMK A01 T00941037  RH  039%=      5-min Rain = 0
KST3 160136Z 20009KT 09/M04 A3014 RMK A01 T00921037  RH  040%=      5-min Rain = 0
KST3 160137Z 20009KT 09/M04 A3014 RMK A01 T00901036  RH  041%=      5-min Rain = 0
KST3 160138Z 19008KT 09/M04 A3015 RMK A01 T00911036  RH  041%=      5-min Rain = 0
KST3 160139Z 20008KT 09/M04 A3015 RMK A01 T00911035  RH  041%=      5-min Rain = 0
KST3 160140Z 19008KT 09/M04 A3015 RMK A01 T00921035  RH  041%=      5-min Rain = 0
KST3 160141Z 19008KT 09/M04 A3015 RMK A01 T00921035  RH  041%=      5-min Rain = 0
KST3 160142Z 19008KT 09/M04 A3015 RMK A01 T00931035  RH  041%=      5-min Rain = 0
KST3 160143Z 20007KT 09/M04 A3015 RMK A01 T00921035  RH  041%=      5-min Rain = 0
KST3 160144Z 20007KT 09/M04 A3015 RMK A01 T00911035  RH  041%=      5-min Rain = 0
KST3 160145Z 19007KT 09/M04 A3015 RMK A01 T00891036  RH  041%=      5-min Rain = 0
KST3 160146Z 20006KT 09/M04 A3015 RMK A01 T00861038  RH  041%=      5-min Rain = 0
KST3 160147Z 20007KT 08/M04 A3015 RMK A01 T00821039  RH  042%=      5-min Rain = 0
KST3 160148Z 20008KT 08/M04 A3015 RMK A01 T00801038  RH  043%=      5-min Rain = 0
KST3 160149Z 20007KT 08/M04 A3015 RMK A01 T00781038  RH  044%=      5-min Rain = 0
KST3 160150Z 20007KT 08/M04 A3015 RMK A01 T00781037  RH  044%=      5-min Rain = 0
KST3 160151Z 20007KT 08/M04 A3015 RMK A01 T00771037  RH  044%=      5-min Rain = 0
KST3 160152Z 20008KT 08/M04 A3015 RMK A01 T00761037  RH  044%=      5-min Rain = 0
KST3 160153Z 20008KT 08/M04 A3015 RMK A01 T00761037  RH  045%=      5-min Rain = 0
KST3 160154Z 20009KT 08/M04 A3015 RMK A01 T00781036  RH  045%=      5-min Rain = 0
KST3 160155Z 20009KT 08/M04 A3015 RMK A01 T00791035  RH  044%=      5-min Rain = 0
KST3 160156Z 20009KT 08/M04 A3015 RMK A01 T00801035  RH  044%=      5-min Rain = 0
KST3 160157Z 19009KT 08/M04 A3015 RMK A01 T00811035  RH  044%=      5-min Rain = 0
KST3 160158Z 19009KT 08/M03 A3015 RMK A01 T00831034  RH  044%=      5-min Rain = 0
KST3 160159Z 19009KT 08/M03 A3015 RMK A01 T00841034  RH  043%=      5-min Rain = 0
KST3 160200Z 19009KT 09/M03 A3015 RMK A01 T00851033  RH  043%=      5-min Rain = 0
KST3 160201Z 19009KT 09/M03 A3015 RMK A01 T00871033  RH  043%=      5-min Rain = 0
KST3 160202Z 19010KT 09/M03 A3015 RMK A01 T00891032  RH  042%=      5-min Rain = 0
KST3 160203Z 19010KT 09/M03 A3015 RMK A01 T00901032  RH  042%=      5-min Rain = 0
KST3 160204Z 19011KT 09/M03 A3015 RMK A01 T00911032  RH  042%=      5-min Rain = 0
KST3 160205Z 19010KT 09/M03 A3015 RMK A01 T00921032  RH  041%=      5-min Rain = 0
KST3 160206Z 19010KT 09/M03 A3015 RMK A01 T00921033  RH  041%=      5-min Rain = 0
KST3 160207Z 20011KT 09/M03 A3015 RMK A01 T00921033  RH  041%=      5-min Rain = 0
KST3 160208Z 20010KT 09/M03 A3015 RMK A01 T00921032  RH  041%=      5-min Rain = 0
KST3 160209Z 19010KT 09/M03 A3015 RMK A01 T00911033  RH  042%=      5-min Rain = 0
KST3 160210Z 19010KT 09/M03 A3015 RMK A01 T00901032  RH  042%=      5-min Rain = 0
KST3 160211Z 20010KT 09/M03 A3015 RMK A01 T00901033  RH  042%=      5-min Rain = 0
KST3 160212Z 20010KT 09/M03 A3015 RMK A01 T00901032  RH  042%=      5-min Rain = 0
KST3 160213Z 20011KT 09/M03 A3015 RMK A01 T00891032  RH  042%=      5-min Rain = 0
KST3 160214Z 20011KT 09/M03 A3015 RMK A01 T00891033  RH  042%=      5-min Rain = 0
KST3 160215Z 20011KT 09/M03 A3015 RMK A01 T00891032  RH  042%=      5-min Rain = 0
KST3 160216Z 20011KT 09/M03 A3015 RMK A01 T00901032  RH  042%=      5-min Rain = 0
KST3 160217Z 20011KT 09/M03 A3015 RMK A01 T00911032  RH  042%=      5-min Rain = 0
KST3 160218Z 20011KT 09/M03 A3015 RMK A01 T00921032  RH  042%=      5-min Rain = 0
KST3 160219Z 20011KT 09/M03 A3015 RMK A01 T00941031  RH  041%=      5-min Rain = 0
KST3 160220Z 20012KT 10/M03 A3015 RMK A01 T00951031  RH  041%=      5-min Rain = 0
KST3 160221Z 20011KT 10/M03 A3015 RMK A01 T00961031  RH  041%=      5-min Rain = 0
KST3 160222Z 20013KT 10/M03 A3015 RMK A01 T00971030  RH  041%=      5-min Rain = 0
KST3 160223Z 20012KT 10/M03 A3015 RMK A01 T00991030  RH  040%=      5-min Rain = 0
KST3 160224Z 20012KT 10/M03 A3015 RMK A01 T00991030  RH  040%=      5-min Rain = 0
KST3 160225Z 20012KT 10/M03 A3015 RMK A01 T00991030  RH  040%=      5-min Rain = 0
KST3 160226Z 20012KT 10/M03 A3015 RMK A01 T00991030  RH  040%=      5-min Rain = 0
KST3 160227Z 20011KT 10/M03 A3015 RMK A01 T01001030  RH  040%=      5-min Rain = 0
KST3 160228Z 20011KT 10/M03 A3015 RMK A01 T01001030  RH  040%=      5-min Rain = 0
KST3 160229Z 20012KT 10/M03 A3015 RMK A01 T00991030  RH  040%=      5-min Rain = 0
KST3 160230Z 20010KT 10/M03 A3015 RMK A01 T01001030  RH  040%=      5-min Rain = 0
KST3 160231Z 20010KT 10/M03 A3015 RMK A01 T01001030  RH  040%=      5-min Rain = 0
KST3 160232Z 20011KT 10/M03 A3015 RMK A01 T00991030  RH  040%=      5-min Rain = 0
KST3 160233Z 20010KT 10/M03 A3015 RMK A01 T00981030  RH  041%=      5-min Rain = 0
KST3 160234Z 20010KT 10/M03 A3015 RMK A01 T00971030  RH  041%=      5-min Rain = 0
KST3 160235Z 20010KT 10/M03 A3015 RMK A01 T00971030  RH  041%=      5-min Rain = 0
KST3 160236Z 20010KT 10/M03 A3015 RMK A01 T00961030  RH  041%=      5-min Rain = 0
KST3 160237Z 20009KT 10/M03 A3015 RMK A01 T00951030  RH  041%=      5-min Rain = 0
KST3 160238Z 20010KT 09/M03 A3015 RMK A01 T00941030  RH  042%=      5-min Rain = 0
KST3 160239Z 20010KT 09/M03 A3015 RMK A01 T00931030  RH  042%=      5-min Rain = 0
KST3 160240Z 20009KT 09/M03 A3015 RMK A01 T00921030  RH  042%=      5-min Rain = 0
KST3 160241Z 20009KT 09/M03 A3015 RMK A01 T00921030  RH  042%=      5-min Rain = 0
KST3 160242Z 20009KT 09/M03 A3015 RMK A01 T00911030  RH  042%=      5-min Rain = 0
KST3 160243Z 20009KT 09/M03 A3015 RMK A01 T00911030  RH  042%=      5-min Rain = 0
KST3 160244Z 20009KT 09/M03 A3015 RMK A01 T00911030  RH  043%=      5-min Rain = 0
KST3 160245Z 20009KT 09/M03 A3015 RMK A01 T00901030  RH  043%=      5-min Rain = 0
KST3 160246Z 20008KT 09/M03 A3015 RMK A01 T00891030  RH  043%=      5-min Rain = 0
KST3 160247Z 20009KT 09/M03 A3015 RMK A01 T00881030  RH  043%=      5-min Rain = 0
KST3 160248Z 20009KT 09/M03 A3015 RMK A01 T00871030  RH  043%=      5-min Rain = 0
KST3 160249Z 20009KT 09/M03 A3015 RMK A01 T00871030  RH  044%=      5-min Rain = 0
KST3 160250Z 20009KT 09/M03 A3015 RMK A01 T00861030  RH  044%=      5-min Rain = 0
KST3 160251Z 20009KT 09/M03 A3015 RMK A01 T00861030  RH  044%=      5-min Rain = 0
KST3 160252Z 20009KT 09/M03 A3015 RMK A01 T00861030  RH  044%=      5-min Rain = 0
KST3 160253Z 20009KT 09/M03 A3015 RMK A01 T00861029  RH  044%=      5-min Rain = 0
KST3 160254Z 20008KT 09/M03 A3015 RMK A01 T00861029  RH  044%=      5-min Rain = 0
KST3 160255Z 20008KT 09/M03 A3015 RMK A01 T00861030  RH  044%=      5-min Rain = 0
KST3 160256Z 20009KT 09/M03 A3015 RMK A01 T00851030  RH  044%=      5-min Rain = 0
KST3 160257Z 20009KT 08/M03 A3015 RMK A01 T00841029  RH  045%=      5-min Rain = 0
KST3 160258Z 20009KT 08/M03 A3015 RMK A01 T00841029  RH  045%=      5-min Rain = 0
KST3 160259Z 20009KT 08/M03 A3015 RMK A01 T00831029  RH  045%=      5-min Rain = 0
KST3 160300Z 20009KT 08/M03 A3015 RMK A01 T00831029  RH  045%=      5-min Rain = 0
KST3 160301Z 20008KT 08/M03 A3015 RMK A01 T00831029  RH  045%=      5-min Rain = 0
KST3 160302Z 20009KT 08/M03 A3015 RMK A01 T00821029  RH  045%=      5-min Rain = 0
KST3 160303Z 20009KT 08/M03 A3015 RMK A01 T00821029  RH  045%=      5-min Rain = 0
KST3 160304Z 20009KT 08/M03 A3015 RMK A01 T00811029  RH  046%=      5-min Rain = 0
KST3 160305Z 20010KT 08/M03 A3015 RMK A01 T00811029  RH  046%=      5-min Rain = 0
KST3 160306Z 20010KT 08/M03 A3015 RMK A01 T00801029  RH  046%=      5-min Rain = 0
KST3 160307Z 20010KT 08/M03 A3015 RMK A01 T00801029  RH  046%=      5-min Rain = 0
KST3 160308Z 20010KT 08/M03 A3015 RMK A01 T00801029  RH  046%=      5-min Rain = 0
KST3 160309Z 20010KT 08/M03 A3015 RMK A01 T00801028  RH  046%=      5-min Rain = 0
KST3 160310Z 20010KT 08/M03 A3015 RMK A01 T00811028  RH  046%=      5-min Rain = 0
KST3 160311Z 20010KT 08/M03 A3015 RMK A01 T00821027  RH  046%=      5-min Rain = 0
KST3 160312Z 20010KT 08/M03 A3015 RMK A01 T00821028  RH  046%=      5-min Rain = 0
KST3 160313Z 20010KT 08/M03 A3015 RMK A01 T00831028  RH  046%=      5-min Rain = 0
KST3 160314Z 20011KT 08/M03 A3015 RMK A01 T00831027  RH  046%=      5-min Rain = 0
KST3 160315Z 20011KT 08/M03 A3015 RMK A01 T00841027  RH  046%=      5-min Rain = 0
KST3 160316Z 20011KT 08/M03 A3015 RMK A01 T00841027  RH  045%=      5-min Rain = 0
KST3 160317Z 20011KT 09/M03 A3015 RMK A01 T00851027  RH  045%=      5-min Rain = 0
KST3 160318Z 20011KT 09/M03 A3015 RMK A01 T00861027  RH  045%=      5-min Rain = 0
KST3 160319Z 20011KT 09/M03 A3015 RMK A01 T00861027  RH  045%=      5-min Rain = 0
KST3 160320Z 20010KT 09/M03 A3015 RMK A01 T00861027  RH  045%=      5-min Rain = 0
KST3 160321Z 20010KT 09/M03 A3015 RMK A01 T00861027  RH  045%=      5-min Rain = 0
KST3 160322Z 20011KT 09/M03 A3015 RMK A01 T00861027  RH  045%=      5-min Rain = 0
KST3 160323Z 20010KT 09/M03 A3015 RMK A01 T00851027  RH  045%=      5-min Rain = 0
KST3 160324Z 20010KT 09/M03 A3015 RMK A01 T00851027  RH  045%=      5-min Rain = 0
KST3 160325Z 20010KT 09/M03 A3015 RMK A01 T00851027  RH  045%=      5-min Rain = 0
KST3 160326Z 20010KT 08/M03 A3014 RMK A01 T00841028  RH  045%=      5-min Rain = 0
KST3 160327Z 20010KT 08/M03 A3014 RMK A01 T00831028  RH  046%=      5-min Rain = 0
KST3 160328Z 20010KT 08/M03 A3014 RMK A01 T00821028  RH  046%=      5-min Rain = 0
KST3 160329Z 20010KT 08/M03 A3014 RMK A01 T00811028  RH  046%=      5-min Rain = 0
KST3 160330Z 20010KT 08/M03 A3014 RMK A01 T00811028  RH  046%=      5-min Rain = 0
KST3 160331Z 20011KT 08/M03 A3014 RMK A01 T00811028  RH  046%=      5-min Rain = 0
KST3 160332Z 20010KT 08/M03 A3014 RMK A01 T00811028  RH  046%=      5-min Rain = 0
KST3 160333Z 20011KT 08/M03 A3014 RMK A01 T00811028  RH  046%=      5-min Rain = 0
KST3 160334Z 20010KT 08/M03 A3014 RMK A01 T00801028  RH  046%=      5-min Rain = 0
KST3 160335Z 20010KT 08/M03 A3014 RMK A01 T00791028  RH  047%=      5-min Rain = 0
KST3 160336Z 20010KT 08/M03 A3014 RMK A01 T00791028  RH  047%=      5-min Rain = 0
KST3 160337Z 20010KT 08/M03 A3014 RMK A01 T00791028  RH  047%=      5-min Rain = 0
KST3 160338Z 20009KT 08/M03 A3014 RMK A01 T00791028  RH  047%=      5-min Rain = 0
KST3 160339Z 20010KT 08/M03 A3014 RMK A01 T00781028  RH  047%=      5-min Rain = 0
KST3 160340Z 20010KT 08/M03 A3014 RMK A01 T00781028  RH  047%=      5-min Rain = 0
KST3 160341Z 20011KT 08/M03 A3014 RMK A01 T00781027  RH  047%=      5-min Rain = 0
KST3 160342Z 20010KT 08/M03 A3014 RMK A01 T00771028  RH  047%=      5-min Rain = 0
KST3 160343Z 20010KT 08/M03 A3014 RMK A01 T00781027  RH  047%=      5-min Rain = 0
KST3 160344Z 20010KT 08/M03 A3014 RMK A01 T00771028  RH  047%=      5-min Rain = 0
KST3 160345Z 20011KT 08/M03 A3014 RMK A01 T00771028  RH  048%=      5-min Rain = 0
KST3 160346Z 20010KT 08/M03 A3014 RMK A01 T00781027  RH  047%=      5-min Rain = 0
KST3 160347Z 20011KT 08/M03 A3014 RMK A01 T00781027  RH  047%=      5-min Rain = 0
KST3 160348Z 20011KT 08/M03 A3014 RMK A01 T00781027  RH  047%=      5-min Rain = 0
KST3 160349Z 20011KT 08/M03 A3014 RMK A01 T00781027  RH  047%=      5-min Rain = 0
KST3 160350Z 20011KT 08/M03 A3014 RMK A01 T00791027  RH  047%=      5-min Rain = 0
KST3 160351Z 20011KT 08/M03 A3014 RMK A01 T00801027  RH  047%=      5-min Rain = 0
KST3 160352Z 20012KT 08/M03 A3014 RMK A01 T00801027  RH  047%=      5-min Rain = 0
KST3 160353Z 20011KT 08/M03 A3014 RMK A01 T00811027  RH  047%=      5-min Rain = 0
KST3 160354Z 20013KT 08/M03 A3014 RMK A01 T00821027  RH  046%=      5-min Rain = 0
KST3 160355Z 20013KT 08/M03 A3014 RMK A01 T00831026  RH  046%=      5-min Rain = 0
KST3 160356Z 20013KT 08/M03 A3014 RMK A01 T00831026  RH  046%=      5-min Rain = 0
KST3 160357Z 20013KT 09/M03 A3014 RMK A01 T00851026  RH  046%=      5-min Rain = 0
KST3 160358Z 20013KT 09/M03 A3014 RMK A01 T00851026  RH  045%=      5-min Rain = 0
KST3 160359Z 20012KT 09/M03 A3014 RMK A01 T00851026  RH  045%=      5-min Rain = 0
KST3 160400Z 20013KT 09/M03 A3014 RMK A01 T00861026  RH  045%=      5-min Rain = 0
KST3 160401Z 20013KT 09/M03 A3014 RMK A01 T00861026  RH  045%=      5-min Rain = 0
KST3 160402Z 20013KT 09/M03 A3014 RMK A01 T00861026  RH  045%=      5-min Rain = 0
KST3 160403Z 20014KT 09/M03 A3014 RMK A01 T00861026  RH  045%=      5-min Rain = 0
KST3 160404Z 20013KT 09/M03 A3014 RMK A01 T00871026  RH  045%=      5-min Rain = 0
KST3 160405Z 20013KT 09/M03 A3014 RMK A01 T00871026  RH  045%=      5-min Rain = 0
KST3 160406Z 20013KT 09/M03 A3014 RMK A01 T00871026  RH  045%=      5-min Rain = 0
KST3 160407Z 20013KT 09/M03 A3014 RMK A01 T00871026  RH  045%=      5-min Rain = 0
KST3 160408Z 20013KT 09/M03 A3014 RMK A01 T00871026  RH  045%=      5-min Rain = 0
KST3 160409Z 20012KT 09/M03 A3014 RMK A01 T00861026  RH  045%=      5-min Rain = 0
KST3 160410Z 20013KT 09/M03 A3014 RMK A01 T00861026  RH  045%=      5-min Rain = 0
KST3 160411Z 20012KT 09/M03 A3014 RMK A01 T00851026  RH  045%=      5-min Rain = 0
KST3 160412Z 20011KT 09/M03 A3014 RMK A01 T00851026  RH  045%=      5-min Rain = 0
KST3 160413Z 20013KT 08/M03 A3014 RMK A01 T00841027  RH  046%=      5-min Rain = 0
KST3 160414Z 20012KT 08/M03 A3014 RMK A01 T00841026  RH  046%=      5-min Rain = 0
KST3 160415Z 20012KT 09/M03 A3014 RMK A01 T00851026  RH  046%=      5-min Rain = 0
KST3 160416Z 20012KT 08/M03 A3014 RMK A01 T00841026  RH  046%=      5-min Rain = 0
KST3 160417Z 20012KT 08/M03 A3014 RMK A01 T00841026  RH  046%=      5-min Rain = 0
KST3 160418Z 20011KT 08/M03 A3014 RMK A01 T00831026  RH  046%=      5-min Rain = 0
KST3 160419Z 20012KT 08/M03 A3014 RMK A01 T00831026  RH  046%=      5-min Rain = 0
KST3 160420Z 20012KT 08/M03 A3014 RMK A01 T00841026  RH  046%=      5-min Rain = 0
KST3 160421Z 20012KT 08/M03 A3014 RMK A01 T00831026  RH  046%=      5-min Rain = 0
KST3 160422Z 20012KT 08/M03 A3014 RMK A01 T00831026  RH  046%=      5-min Rain = 0
KST3 160423Z 20011KT 08/M03 A3014 RMK A01 T00831026  RH  046%=      5-min Rain = 0
KST3 160424Z 20011KT 08/M03 A3014 RMK A01 T00821026  RH  047%=      5-min Rain = 0
KST3 160425Z 20012KT 08/M03 A3014 RMK A01 T00811026  RH  047%=      5-min Rain = 0
KST3 160426Z 20012KT 08/M03 A3014 RMK A01 T00811026  RH  047%=      5-min Rain = 0
KST3 160427Z 20011KT 08/M03 A3014 RMK A01 T00811026  RH  047%=      5-min Rain = 0
KST3 160428Z 20012KT 08/M03 A3014 RMK A01 T00801026  RH  047%=      5-min Rain = 0
KST3 160429Z 20010KT 08/M03 A3014 RMK A01 T00801026  RH  047%=      5-min Rain = 0
KST3 160430Z 20010KT 08/M03 A3014 RMK A01 T00781026  RH  048%=      5-min Rain = 0
KST3 160431Z 21011KT 08/M03 A3014 RMK A01 T00771026  RH  048%=      5-min Rain = 0
KST3 160432Z 20010KT 08/M03 A3014 RMK A01 T00761026  RH  048%=      5-min Rain = 0
KST3 160433Z 21010KT 08/M03 A3014 RMK A01 T00751026  RH  049%=      5-min Rain = 0
KST3 160434Z 20011KT 07/M03 A3014 RMK A01 T00731027  RH  049%=      5-min Rain = 0
KST3 160435Z 20011KT 07/M03 A3014 RMK A01 T00731026  RH  049%=      5-min Rain = 0
KST3 160436Z 20010KT 07/M03 A3014 RMK A01 T00731026  RH  050%=      5-min Rain = 0
KST3 160437Z 20010KT 07/M03 A3014 RMK A01 T00721026  RH  050%=      5-min Rain = 0
KST3 160438Z 20010KT 07/M03 A3014 RMK A01 T00711026  RH  050%=      5-min Rain = 0
KST3 160439Z 20011KT 07/M03 A3014 RMK A01 T00711026  RH  050%=      5-min Rain = 0
KST3 160440Z 20011KT 07/M03 A3014 RMK A01 T00701026  RH  050%=      5-min Rain = 0
KST3 160441Z 20011KT 07/M03 A3014 RMK A01 T00701026  RH  050%=      5-min Rain = 0
KST3 160442Z 20010KT 07/M03 A3014 RMK A01 T00701026  RH  050%=      5-min Rain = 0
KST3 160443Z 20011KT 07/M03 A3014 RMK A01 T00701026  RH  050%=      5-min Rain = 0
KST3 160444Z 20011KT 07/M03 A3014 RMK A01 T00701026  RH  050%=      5-min Rain = 0
KST3 160445Z 20010KT 07/M03 A3014 RMK A01 T00691026  RH  051%=      5-min Rain = 0
KST3 160446Z 20010KT 07/M03 A3014 RMK A01 T00681026  RH  051%=      5-min Rain = 0
KST3 160447Z 20010KT 07/M03 A3014 RMK A01 T00671026  RH  051%=      5-min Rain = 0
KST3 160448Z 20010KT 07/M03 A3013 RMK A01 T00671027  RH  051%=      5-min Rain = 0
KST3 160449Z 20010KT 07/M03 A3014 RMK A01 T00661027  RH  052%=      5-min Rain = 0
KST3 160450Z 20010KT 07/M03 A3013 RMK A01 T00651026  RH  052%=      5-min Rain = 0
KST3 160451Z 20010KT 07/M03 A3014 RMK A01 T00651027  RH  052%=      5-min Rain = 0
KST3 160452Z 20010KT 06/M03 A3013 RMK A01 T00641026  RH  052%=      5-min Rain = 0
KST3 160453Z 20010KT 06/M03 A3014 RMK A01 T00641027  RH  052%=      5-min Rain = 0
KST3 160454Z 21010KT 06/M03 A3014 RMK A01 T00631027  RH  052%=      5-min Rain = 0
KST3 160455Z 21010KT 06/M03 A3014 RMK A01 T00631027  RH  053%=      5-min Rain = 0
KST3 160456Z 21010KT 06/M03 A3014 RMK A01 T00631027  RH  053%=      5-min Rain = 0
KST3 160457Z 21010KT 06/M03 A3014 RMK A01 T00621027  RH  053%=      5-min Rain = 0
KST3 160458Z 21010KT 06/M03 A3014 RMK A01 T00621027  RH  053%=      5-min Rain = 0
KST3 160459Z 21010KT 06/M03 A3013 RMK A01 T00611027  RH  053%=      5-min Rain = 0
KST3 160500Z 20010KT 06/M03 A3013 RMK A01 T00611027  RH  053%=      5-min Rain = 0
KST3 160501Z 21009KT 06/M03 A3013 RMK A01 T00601027  RH  054%=      5-min Rain = 0
KST3 160502Z 21009KT 06/M03 A3013 RMK A01 T00591028  RH  054%=      5-min Rain = 0
KST3 160503Z 21010KT 06/M03 A3013 RMK A01 T00581028  RH  054%=      5-min Rain = 0
KST3 160504Z 21009KT 06/M03 A3013 RMK A01 T00571028  RH  054%=      5-min Rain = 0
KST3 160505Z 21010KT 06/M03 A3013 RMK A01 T00561028  RH  055%=      5-min Rain = 0
KST3 160506Z 21010KT 06/M03 A3013 RMK A01 T00561028  RH  055%=      5-min Rain = 0
KST3 160507Z 21010KT 06/M03 A3013 RMK A01 T00561028  RH  055%=      5-min Rain = 0
KST3 160508Z 21010KT 06/M03 A3013 RMK A01 T00561028  RH  055%=      5-min Rain = 0
KST3 160509Z 21010KT 06/M03 A3013 RMK A01 T00561028  RH  055%=      5-min Rain = 0
KST3 160510Z 21009KT 06/M03 A3013 RMK A01 T00551029  RH  055%=      5-min Rain = 0
KST3 160511Z 21010KT 05/M03 A3013 RMK A01 T00541029  RH  055%=      5-min Rain = 0
KST3 160512Z 21010KT 05/M03 A3013 RMK A01 T00541029  RH  055%=      5-min Rain = 0
KST3 160513Z 21009KT 05/M03 A3013 RMK A01 T00531029  RH  055%=      5-min Rain = 0
KST3 160514Z 21009KT 05/M03 A3013 RMK A01 T00541028  RH  055%=      5-min Rain = 0
KST3 160515Z 21009KT 05/M03 A3013 RMK A01 T00541029  RH  055%=      5-min Rain = 0
KST3 160516Z 21009KT 05/M03 A3013 RMK A01 T00541029  RH  055%=      5-min Rain = 0
KST3 160517Z 21009KT 05/M03 A3013 RMK A01 T00541029  RH  055%=      5-min Rain = 0
KST3 160518Z 21009KT 05/M03 A3013 RMK A01 T00531029  RH  056%=      5-min Rain = 0
KST3 160519Z 21009KT 05/M03 A3013 RMK A01 T00531028  RH  056%=      5-min Rain = 0
KST3 160520Z 21009KT 05/M03 A3013 RMK A01 T00531029  RH  056%=      5-min Rain = 0
KST3 160521Z 21009KT 05/M03 A3013 RMK A01 T00531029  RH  056%=      5-min Rain = 0
KST3 160522Z 21009KT 05/M03 A3013 RMK A01 T00521029  RH  056%=      5-min Rain = 0
KST3 160523Z 21009KT 05/M03 A3013 RMK A01 T00521029  RH  056%=      5-min Rain = 0
KST3 160524Z 21009KT 05/M03 A3013 RMK A01 T00531028  RH  056%=      5-min Rain = 0
KST3 160525Z 21010KT 05/M03 A3013 RMK A01 T00531028  RH  056%=      5-min Rain = 0
KST3 160526Z 21010KT 05/M03 A3013 RMK A01 T00541028  RH  055%=      5-min Rain = 0
KST3 160527Z 20010KT 05/M03 A3013 RMK A01 T00541028  RH  055%=      5-min Rain = 0
KST3 160528Z 21010KT 06/M03 A3013 RMK A01 T00551027  RH  055%=      5-min Rain = 0
KST3 160529Z 21010KT 06/M03 A3013 RMK A01 T00561027  RH  055%=      5-min Rain = 0
KST3 160530Z 21010KT 06/M03 A3013 RMK A01 T00561027  RH  055%=      5-min Rain = 0
KST3 160531Z 21010KT 06/M03 A3013 RMK A01 T00571027  RH  055%=      5-min Rain = 0
KST3 160532Z 21010KT 06/M03 A3012 RMK A01 T00561027  RH  055%=      5-min Rain = 0
KST3 160533Z 21010KT 06/M03 A3012 RMK A01 T00561027  RH  055%=      5-min Rain = 0
KST3 160534Z 21010KT 06/M03 A3012 RMK A01 T00561028  RH  055%=      5-min Rain = 0
KST3 160535Z 21010KT 06/M03 A3012 RMK A01 T00561028  RH  055%=      5-min Rain = 0
KST3 160536Z 21010KT 06/M03 A3012 RMK A01 T00561028  RH  055%=      5-min Rain = 0
KST3 160537Z 21010KT 06/M03 A3012 RMK A01 T00561027  RH  055%=      5-min Rain = 0
KST3 160538Z 21011KT 06/M03 A3012 RMK A01 T00571027  RH  055%=      5-min Rain = 0
KST3 160539Z 21011KT 06/M03 A3012 RMK A01 T00581027  RH  055%=      5-min Rain = 0
KST3 160540Z 21011KT 06/M03 A3012 RMK A01 T00591026  RH  054%=      5-min Rain = 0
KST3 160541Z 21010KT 06/M03 A3012 RMK A01 T00591027  RH  054%=      5-min Rain = 0
KST3 160542Z 21011KT 06/M03 A3012 RMK A01 T00591027  RH  054%=      5-min Rain = 0
KST3 160543Z 21011KT 06/M03 A3012 RMK A01 T00581027  RH  054%=      5-min Rain = 0
KST3 160544Z 21011KT 06/M03 A3012 RMK A01 T00591026  RH  054%=      5-min Rain = 0
KST3 160545Z 21011KT 06/M03 A3012 RMK A01 T00591026  RH  054%=      5-min Rain = 0
KST3 160546Z 21011KT 06/M03 A3012 RMK A01 T00601026  RH  054%=      5-min Rain = 0
KST3 160547Z 21012KT 06/M03 A3012 RMK A01 T00611026  RH  054%=      5-min Rain = 0
KST3 160548Z 21011KT 06/M03 A3012 RMK A01 T00611026  RH  054%=      5-min Rain = 0
KST3 160549Z 21011KT 06/M03 A3012 RMK A01 T00611026  RH  054%=      5-min Rain = 0
KST3 160550Z 21011KT 06/M03 A3012 RMK A01 T00611026  RH  053%=      5-min Rain = 0
KST3 160551Z 21011KT 06/M03 A3012 RMK A01 T00611027  RH  053%=      5-min Rain = 0
KST3 160552Z 21012KT 06/M03 A3012 RMK A01 T00611026  RH  053%=      5-min Rain = 0
KST3 160553Z 21012KT 06/M03 A3012 RMK A01 T00611026  RH  054%=      5-min Rain = 0
KST3 160554Z 21012KT 06/M03 A3012 RMK A01 T00611026  RH  053%=      5-min Rain = 0
KST3 160555Z 21012KT 06/M03 A3012 RMK A01 T00611026  RH  053%=      5-min Rain = 0
KST3 160556Z 21012KT 06/M03 A3012 RMK A01 T00621026  RH  053%=      5-min Rain = 0
KST3 160557Z 21012KT 06/M03 A3012 RMK A01 T00631026  RH  053%=      5-min Rain = 0
KST3 160558Z 21011KT 06/M03 A3012 RMK A01 T00631026  RH  053%=      5-min Rain = 0
KST3 160559Z 21012KT 06/M03 A3012 RMK A01 T00631026  RH  053%=      5-min Rain = 0

Page generated in 0.0912 seconds.